Observation data for Crowell on 09/11/2017      Previous  Date  Next       Current Mesonet Observations  Soil Data  Daily Summary Page  Observations in Plain Language
KCR1 110500Z 13005KT 19/11 A3019 RMK A01 T01890107  RH  059%=      5-min Rain = 0
KCR1 110501Z 12005KT 19/11 A3019 RMK A01 T01890107  RH  059%=      5-min Rain = 0
KCR1 110502Z 13005KT 19/11 A3019 RMK A01 T01890107  RH  059%=      5-min Rain = 0
KCR1 110503Z 13005KT 19/11 A3019 RMK A01 T01890107  RH  059%=      5-min Rain = 0
KCR1 110504Z 12005KT 19/11 A3019 RMK A01 T01880108  RH  059%=      5-min Rain = 0
KCR1 110505Z 13005KT 19/11 A3019 RMK A01 T01880107  RH  059%=      5-min Rain = 0
KCR1 110506Z 12005KT 19/11 A3019 RMK A01 T01870108  RH  060%=      5-min Rain = 0
KCR1 110507Z 13005KT 19/11 A3019 RMK A01 T01870108  RH  060%=      5-min Rain = 0
KCR1 110508Z 13005KT 19/11 A3019 RMK A01 T01870108  RH  060%=      5-min Rain = 0
KCR1 110509Z 13005KT 19/11 A3019 RMK A01 T01870108  RH  060%=      5-min Rain = 0
KCR1 110510Z 13005KT 19/11 A3019 RMK A01 T01870108  RH  060%=      5-min Rain = 0
KCR1 110511Z 13005KT 19/11 A3019 RMK A01 T01870108  RH  060%=      5-min Rain = 0
KCR1 110512Z 13004KT 19/11 A3019 RMK A01 T01860108  RH  060%=      5-min Rain = 0
KCR1 110513Z 13005KT 19/11 A3019 RMK A01 T01860108  RH  061%=      5-min Rain = 0
KCR1 110514Z 13005KT 19/11 A3019 RMK A01 T01850108  RH  061%=      5-min Rain = 0
KCR1 110515Z 13004KT 19/11 A3019 RMK A01 T01850108  RH  061%=      5-min Rain = 0
KCR1 110516Z 13004KT 19/11 A3019 RMK A01 T01850108  RH  061%=      5-min Rain = 0
KCR1 110517Z 13005KT 18/11 A3019 RMK A01 T01840108  RH  061%=      5-min Rain = 0
KCR1 110518Z 13005KT 18/11 A3019 RMK A01 T01840108  RH  061%=      5-min Rain = 0
KCR1 110519Z 13004KT 18/11 A3019 RMK A01 T01840108  RH  061%=      5-min Rain = 0
KCR1 110520Z 13004KT 18/11 A3019 RMK A01 T01840108  RH  061%=      5-min Rain = 0
KCR1 110521Z 13005KT 18/11 A3019 RMK A01 T01840108  RH  061%=      5-min Rain = 0
KCR1 110522Z 13004KT 18/11 A3019 RMK A01 T01830108  RH  062%=      5-min Rain = 0
KCR1 110523Z 13004KT 18/11 A3019 RMK A01 T01830108  RH  062%=      5-min Rain = 0
KCR1 110524Z 13004KT 18/11 A3019 RMK A01 T01830108  RH  062%=      5-min Rain = 0
KCR1 110525Z 13005KT 18/11 A3019 RMK A01 T01830108  RH  062%=      5-min Rain = 0
KCR1 110526Z 13004KT 18/11 A3019 RMK A01 T01830108  RH  062%=      5-min Rain = 0
KCR1 110527Z 13005KT 18/11 A3019 RMK A01 T01820108  RH  062%=      5-min Rain = 0
KCR1 110528Z 13005KT 18/11 A3018 RMK A01 T01820108  RH  062%=      5-min Rain = 0
KCR1 110529Z 12005KT 18/11 A3018 RMK A01 T01820108  RH  062%=      5-min Rain = 0
KCR1 110530Z 12005KT 18/11 A3018 RMK A01 T01820108  RH  062%=      5-min Rain = 0
KCR1 110531Z 13005KT 18/11 A3019 RMK A01 T01820108  RH  062%=      5-min Rain = 0
KCR1 110532Z 13005KT 18/11 A3019 RMK A01 T01810108  RH  062%=      5-min Rain = 0
KCR1 110533Z 13005KT 18/11 A3019 RMK A01 T01810108  RH  062%=      5-min Rain = 0
KCR1 110534Z 13005KT 18/11 A3019 RMK A01 T01810108  RH  062%=      5-min Rain = 0
KCR1 110535Z 13005KT 18/11 A3019 RMK A01 T01810108  RH  062%=      5-min Rain = 0
KCR1 110536Z 13005KT 18/11 A3019 RMK A01 T01810108  RH  063%=      5-min Rain = 0
KCR1 110537Z 13005KT 18/11 A3019 RMK A01 T01810109  RH  063%=      5-min Rain = 0
KCR1 110538Z 13005KT 18/11 A3019 RMK A01 T01800108  RH  063%=      5-min Rain = 0
KCR1 110539Z 13005KT 18/11 A3019 RMK A01 T01800108  RH  063%=      5-min Rain = 0
KCR1 110540Z 12005KT 18/11 A3019 RMK A01 T01800108  RH  063%=      5-min Rain = 0
KCR1 110541Z 13005KT 18/11 A3019 RMK A01 T01800108  RH  063%=      5-min Rain = 0
KCR1 110542Z 13005KT 18/11 A3019 RMK A01 T01800109  RH  063%=      5-min Rain = 0
KCR1 110543Z 13005KT 18/11 A3019 RMK A01 T01800109  RH  063%=      5-min Rain = 0
KCR1 110544Z 13005KT 18/11 A3019 RMK A01 T01800108  RH  063%=      5-min Rain = 0
KCR1 110545Z 13005KT 18/11 A3019 RMK A01 T01800108  RH  063%=      5-min Rain = 0
KCR1 110546Z 13005KT 18/11 A3019 RMK A01 T01800108  RH  063%=      5-min Rain = 0
KCR1 110547Z 13005KT 18/11 A3019 RMK A01 T01800109  RH  063%=      5-min Rain = 0
KCR1 110548Z 13005KT 18/11 A3019 RMK A01 T01800108  RH  063%=      5-min Rain = 0
KCR1 110549Z 13005KT 18/11 A3019 RMK A01 T01810109  RH  063%=      5-min Rain = 0
KCR1 110550Z 13005KT 18/11 A3019 RMK A01 T01800108  RH  063%=      5-min Rain = 0
KCR1 110551Z 13005KT 18/11 A3019 RMK A01 T01800109  RH  063%=      5-min Rain = 0
KCR1 110552Z 13005KT 18/11 A3019 RMK A01 T01800109  RH  063%=      5-min Rain = 0
KCR1 110553Z 13005KT 18/11 A3018 RMK A01 T01810109  RH  063%=      5-min Rain = 0
KCR1 110554Z 13005KT 18/11 A3018 RMK A01 T01800109  RH  063%=      5-min Rain = 0
KCR1 110555Z 13005KT 18/11 A3018 RMK A01 T01800109  RH  063%=      5-min Rain = 0
KCR1 110556Z 13005KT 18/11 A3018 RMK A01 T01800108  RH  063%=      5-min Rain = 0
KCR1 110557Z 13005KT 18/11 A3018 RMK A01 T01800109  RH  063%=      5-min Rain = 0
KCR1 110558Z 13005KT 18/11 A3018 RMK A01 T01800108  RH  063%=      5-min Rain = 0
KCR1 110559Z 13005KT 18/11 A3018 RMK A01 T01800108  RH  063%=      5-min Rain = 0
KCR1 110600Z 13005KT 18/11 A3018 RMK A01 T01800108  RH  063%=      5-min Rain = 0
KCR1 110601Z 13005KT 18/11 A3018 RMK A01 T01790108  RH  063%=      5-min Rain = 0
KCR1 110602Z 13005KT 18/11 A3018 RMK A01 T01790109  RH  063%=      5-min Rain = 0
KCR1 110603Z 13005KT 18/11 A3018 RMK A01 T01790108  RH  063%=      5-min Rain = 0
KCR1 110604Z 13006KT 18/11 A3018 RMK A01 T01780109  RH  064%=      5-min Rain = 0
KCR1 110605Z 14005KT 18/11 A3018 RMK A01 T01780109  RH  064%=      5-min Rain = 0
KCR1 110606Z 14005KT 18/11 A3018 RMK A01 T01770108  RH  064%=      5-min Rain = 0
KCR1 110607Z 14005KT 18/11 A3018 RMK A01 T01770109  RH  064%=      5-min Rain = 0
KCR1 110608Z 14005KT 18/11 A3018 RMK A01 T01760109  RH  064%=      5-min Rain = 0
KCR1 110609Z 14005KT 18/11 A3018 RMK A01 T01760108  RH  065%=      5-min Rain = 0
KCR1 110610Z 14005KT 18/11 A3018 RMK A01 T01750108  RH  065%=      5-min Rain = 0
KCR1 110611Z 15005KT 18/11 A3018 RMK A01 T01760109  RH  065%=      5-min Rain = 0
KCR1 110612Z 15005KT 18/11 A3018 RMK A01 T01750109  RH  065%=      5-min Rain = 0
KCR1 110613Z 14005KT 18/11 A3018 RMK A01 T01750109  RH  065%=      5-min Rain = 0
KCR1 110614Z 14005KT 17/11 A3018 RMK A01 T01740108  RH  065%=      5-min Rain = 0
KCR1 110615Z 14005KT 17/11 A3018 RMK A01 T01740108  RH  065%=      5-min Rain = 0
KCR1 110616Z 14005KT 17/11 A3018 RMK A01 T01740108  RH  065%=      5-min Rain = 0
KCR1 110617Z 14005KT 17/11 A3018 RMK A01 T01740108  RH  065%=      5-min Rain = 0
KCR1 110618Z 14005KT 17/11 A3018 RMK A01 T01730108  RH  065%=      5-min Rain = 0
KCR1 110619Z 15005KT 17/11 A3018 RMK A01 T01730108  RH  066%=      5-min Rain = 0
KCR1 110620Z 15004KT 17/11 A3018 RMK A01 T01730108  RH  066%=      5-min Rain = 0
KCR1 110621Z 15004KT 17/11 A3018 RMK A01 T01730108  RH  066%=      5-min Rain = 0
KCR1 110622Z 15004KT 17/11 A3018 RMK A01 T01730108  RH  066%=      5-min Rain = 0
KCR1 110623Z 14004KT 17/11 A3018 RMK A01 T01730108  RH  066%=      5-min Rain = 0
KCR1 110624Z 14004KT 17/11 A3018 RMK A01 T01720108  RH  066%=      5-min Rain = 0
KCR1 110625Z 14004KT 17/11 A3018 RMK A01 T01730108  RH  066%=      5-min Rain = 0
KCR1 110626Z 15004KT 17/11 A3018 RMK A01 T01730107  RH  065%=      5-min Rain = 0
KCR1 110627Z 15004KT 17/11 A3018 RMK A01 T01730108  RH  065%=      5-min Rain = 0
KCR1 110628Z 15004KT 17/11 A3018 RMK A01 T01730108  RH  065%=      5-min Rain = 0
KCR1 110629Z 15004KT 17/11 A3018 RMK A01 T01740109  RH  066%=      5-min Rain = 0
KCR1 110630Z 15004KT 17/11 A3018 RMK A01 T01740109  RH  066%=      5-min Rain = 0
KCR1 110631Z 15003KT 17/11 A3018 RMK A01 T01740110  RH  066%=      5-min Rain = 0
KCR1 110632Z 16003KT 17/11 A3018 RMK A01 T01740110  RH  066%=      5-min Rain = 0
KCR1 110633Z 16003KT 17/11 A3018 RMK A01 T01740109  RH  066%=      5-min Rain = 0
KCR1 110634Z 17003KT 17/11 A3018 RMK A01 T01740109  RH  066%=      5-min Rain = 0
KCR1 110635Z 17003KT 18/11 A3018 RMK A01 T01750110  RH  065%=      5-min Rain = 0
KCR1 110636Z 17003KT 18/11 A3018 RMK A01 T01760110  RH  065%=      5-min Rain = 0
KCR1 110637Z 17003KT 18/11 A3018 RMK A01 T01770110  RH  065%=      5-min Rain = 0
KCR1 110638Z 17003KT 18/11 A3018 RMK A01 T01780110  RH  065%=      5-min Rain = 0
KCR1 110639Z 17003KT 18/11 A3018 RMK A01 T01780110  RH  064%=      5-min Rain = 0
KCR1 110640Z 18002KT 18/11 A3018 RMK A01 T01790111  RH  064%=      5-min Rain = 0
KCR1 110641Z 18002KT 18/11 A3018 RMK A01 T01790110  RH  064%=      5-min Rain = 0
KCR1 110642Z 18002KT 18/11 A3018 RMK A01 T01790111  RH  064%=      5-min Rain = 0
KCR1 110643Z 18002KT 18/11 A3018 RMK A01 T01790111  RH  064%=      5-min Rain = 0
KCR1 110644Z 19002KT 18/11 A3018 RMK A01 T01790110  RH  064%=      5-min Rain = 0
KCR1 110645Z 19002KT 18/11 A3018 RMK A01 T01790111  RH  064%=      5-min Rain = 0
KCR1 110646Z 18002KT 18/11 A3018 RMK A01 T01780110  RH  064%=      5-min Rain = 0
KCR1 110647Z 18002KT 18/11 A3018 RMK A01 T01780110  RH  064%=      5-min Rain = 0
KCR1 110648Z 18002KT 18/11 A3018 RMK A01 T01780110  RH  064%=      5-min Rain = 0
KCR1 110649Z 18002KT 18/11 A3018 RMK A01 T01770110  RH  065%=      5-min Rain = 0
KCR1 110650Z 19002KT 18/11 A3018 RMK A01 T01770110  RH  065%=      5-min Rain = 0
KCR1 110651Z 18002KT 18/11 A3018 RMK A01 T01770110  RH  065%=      5-min Rain = 0
KCR1 110652Z 19002KT 18/11 A3018 RMK A01 T01770110  RH  065%=      5-min Rain = 0
KCR1 110653Z 19003KT 18/11 A3018 RMK A01 T01770110  RH  065%=      5-min Rain = 0
KCR1 110654Z 20002KT 18/11 A3018 RMK A01 T01760109  RH  065%=      5-min Rain = 0
KCR1 110655Z 20002KT 18/11 A3018 RMK A01 T01760109  RH  065%=      5-min Rain = 0
KCR1 110656Z 20002KT 18/11 A3018 RMK A01 T01760109  RH  065%=      5-min Rain = 0
KCR1 110657Z 20002KT 18/11 A3018 RMK A01 T01760109  RH  065%=      5-min Rain = 0
KCR1 110658Z 20002KT 18/11 A3018 RMK A01 T01760109  RH  065%=      5-min Rain = 0
KCR1 110659Z 19002KT 18/11 A3018 RMK A01 T01750109  RH  065%=      5-min Rain = 0
KCR1 110700Z 19002KT 18/11 A3018 RMK A01 T01750109  RH  065%=      5-min Rain = 0
KCR1 110701Z 19002KT 18/11 A3018 RMK A01 T01750109  RH  065%=      5-min Rain = 0
KCR1 110702Z 20002KT 18/11 A3018 RMK A01 T01760109  RH  065%=      5-min Rain = 0
KCR1 110703Z 20002KT 18/11 A3018 RMK A01 T01760109  RH  065%=      5-min Rain = 0
KCR1 110704Z 19003KT 18/11 A3018 RMK A01 T01760108  RH  065%=      5-min Rain = 0
KCR1 110705Z 20003KT 18/11 A3018 RMK A01 T01760108  RH  064%=      5-min Rain = 0
KCR1 110706Z 20003KT 18/11 A3018 RMK A01 T01770108  RH  064%=      5-min Rain = 0
KCR1 110707Z 20003KT 18/11 A3018 RMK A01 T01780108  RH  064%=      5-min Rain = 0
KCR1 110708Z 20003KT 18/11 A3018 RMK A01 T01780108  RH  064%=      5-min Rain = 0
KCR1 110709Z 20003KT 18/11 A3018 RMK A01 T01770108  RH  064%=      5-min Rain = 0
KCR1 110710Z 20003KT 18/11 A3018 RMK A01 T01780108  RH  064%=      5-min Rain = 0
KCR1 110711Z 20003KT 18/11 A3018 RMK A01 T01780108  RH  063%=      5-min Rain = 0
KCR1 110712Z 19003KT 18/11 A3018 RMK A01 T01790108  RH  063%=      5-min Rain = 0
KCR1 110713Z 19004KT 18/11 A3018 RMK A01 T01790108  RH  063%=      5-min Rain = 0
KCR1 110714Z 18004KT 18/11 A3018 RMK A01 T01780107  RH  063%=      5-min Rain = 0
KCR1 110715Z 19004KT 18/11 A3018 RMK A01 T01780108  RH  063%=      5-min Rain = 0
KCR1 110716Z 18004KT 18/11 A3018 RMK A01 T01780107  RH  063%=      5-min Rain = 0
KCR1 110717Z 18005KT 18/11 A3018 RMK A01 T01790107  RH  063%=      5-min Rain = 0
KCR1 110718Z 18005KT 18/11 A3018 RMK A01 T01800107  RH  062%=      5-min Rain = 0
KCR1 110719Z 18005KT 18/11 A3018 RMK A01 T01800107  RH  062%=      5-min Rain = 0
KCR1 110720Z 18005KT 18/11 A3018 RMK A01 T01800107  RH  062%=      5-min Rain = 0
KCR1 110721Z 18005KT 18/11 A3018 RMK A01 T01800107  RH  062%=      5-min Rain = 0
KCR1 110722Z 18005KT 18/11 A3018 RMK A01 T01810107  RH  062%=      5-min Rain = 0
KCR1 110723Z 19005KT 18/11 A3018 RMK A01 T01800107  RH  062%=      5-min Rain = 0
KCR1 110724Z 19005KT 18/11 A3018 RMK A01 T01810107  RH  062%=      5-min Rain = 0
KCR1 110725Z 19004KT 18/11 A3018 RMK A01 T01810107  RH  062%=      5-min Rain = 0
KCR1 110726Z 19004KT 18/11 A3018 RMK A01 T01800107  RH  062%=      5-min Rain = 0
KCR1 110727Z 19004KT 18/11 A3018 RMK A01 T01800107  RH  062%=      5-min Rain = 0
KCR1 110728Z 19004KT 18/11 A3018 RMK A01 T01800107  RH  062%=      5-min Rain = 0
KCR1 110729Z 18004KT 18/11 A3018 RMK A01 T01800107  RH  062%=      5-min Rain = 0
KCR1 110730Z 18004KT 18/11 A3018 RMK A01 T01800107  RH  062%=      5-min Rain = 0
KCR1 110731Z 18004KT 18/11 A3018 RMK A01 T01810107  RH  062%=      5-min Rain = 0
KCR1 110732Z 18004KT 18/11 A3018 RMK A01 T01820107  RH  062%=      5-min Rain = 0
KCR1 110733Z 18004KT 18/11 A3018 RMK A01 T01820106  RH  061%=      5-min Rain = 0
KCR1 110734Z 19004KT 18/11 A3018 RMK A01 T01820106  RH  061%=      5-min Rain = 0
KCR1 110735Z 19004KT 18/11 A3017 RMK A01 T01820106  RH  061%=      5-min Rain = 0
KCR1 110736Z 22003KT 18/11 A3017 RMK A01 T01820107  RH  061%=      5-min Rain = 0
KCR1 110737Z 23002KT 18/11 A3017 RMK A01 T01820107  RH  062%=      5-min Rain = 0
KCR1 110738Z 23002KT 18/11 A3017 RMK A01 T01810106  RH  062%=      5-min Rain = 0
KCR1 110739Z 22003KT 18/11 A3017 RMK A01 T01810107  RH  062%=      5-min Rain = 0
KCR1 110740Z 21003KT 18/11 A3017 RMK A01 T01800106  RH  062%=      5-min Rain = 0
KCR1 110741Z 21003KT 18/11 A3017 RMK A01 T01790106  RH  062%=      5-min Rain = 0
KCR1 110742Z 21003KT 18/11 A3017 RMK A01 T01790107  RH  062%=      5-min Rain = 0
KCR1 110743Z 21003KT 18/11 A3017 RMK A01 T01790108  RH  063%=      5-min Rain = 0
KCR1 110744Z 21003KT 18/11 A3017 RMK A01 T01790108  RH  063%=      5-min Rain = 0
KCR1 110745Z 21003KT 18/11 A3017 RMK A01 T01790108  RH  063%=      5-min Rain = 0
KCR1 110746Z 21003KT 18/11 A3017 RMK A01 T01780107  RH  063%=      5-min Rain = 0
KCR1 110747Z 21003KT 18/11 A3017 RMK A01 T01780107  RH  063%=      5-min Rain = 0
KCR1 110748Z 21003KT 18/11 A3017 RMK A01 T01780106  RH  063%=      5-min Rain = 0
KCR1 110749Z 21003KT 18/11 A3017 RMK A01 T01780106  RH  062%=      5-min Rain = 0
KCR1 110750Z 22003KT 18/11 A3017 RMK A01 T01780106  RH  062%=      5-min Rain = 0
KCR1 110751Z 22003KT 18/11 A3017 RMK A01 T01780105  RH  062%=      5-min Rain = 0
KCR1 110752Z 23003KT 18/11 A3017 RMK A01 T01780106  RH  062%=      5-min Rain = 0
KCR1 110753Z 23003KT 18/11 A3017 RMK A01 T01770105  RH  063%=      5-min Rain = 0
KCR1 110754Z 23003KT 18/11 A3017 RMK A01 T01770105  RH  063%=      5-min Rain = 0
KCR1 110755Z 23003KT 18/11 A3017 RMK A01 T01760105  RH  063%=      5-min Rain = 0
KCR1 110756Z 23003KT 18/11 A3017 RMK A01 T01760106  RH  063%=      5-min Rain = 0
KCR1 110757Z 23003KT 18/11 A3017 RMK A01 T01750106  RH  064%=      5-min Rain = 0
KCR1 110758Z 24003KT 18/11 A3017 RMK A01 T01750106  RH  064%=      5-min Rain = 0
KCR1 110759Z 24003KT 17/11 A3017 RMK A01 T01740105  RH  064%=      5-min Rain = 0
KCR1 110800Z 24003KT 17/11 A3017 RMK A01 T01740105  RH  064%=      5-min Rain = 0
KCR1 110801Z 24003KT 17/11 A3017 RMK A01 T01740105  RH  064%=      5-min Rain = 0
KCR1 110802Z 24003KT 18/11 A3017 RMK A01 T01750105  RH  064%=      5-min Rain = 0
KCR1 110803Z 24003KT 18/11 A3017 RMK A01 T01760106  RH  063%=      5-min Rain = 0
KCR1 110804Z 24003KT 18/11 A3017 RMK A01 T01760105  RH  063%=      5-min Rain = 0
KCR1 110805Z 24003KT 18/11 A3017 RMK A01 T01760106  RH  063%=      5-min Rain = 0
KCR1 110806Z 23003KT 18/11 A3017 RMK A01 T01760106  RH  064%=      5-min Rain = 0
KCR1 110807Z 23003KT 18/11 A3017 RMK A01 T01750106  RH  064%=      5-min Rain = 0
KCR1 110808Z 23003KT 18/11 A3017 RMK A01 T01750106  RH  064%=      5-min Rain = 0
KCR1 110809Z 23003KT 17/11 A3017 RMK A01 T01740106  RH  064%=      5-min Rain = 0
KCR1 110810Z 24003KT 17/11 A3017 RMK A01 T01740106  RH  064%=      5-min Rain = 0
KCR1 110811Z 24003KT 18/11 A3017 RMK A01 T01750106  RH  064%=      5-min Rain = 0
KCR1 110812Z 24003KT 18/11 A3017 RMK A01 T01750106  RH  064%=      5-min Rain = 0
KCR1 110813Z 25003KT 18/11 A3017 RMK A01 T01750105  RH  064%=      5-min Rain = 0
KCR1 110814Z 24003KT 18/11 A3017 RMK A01 T01750106  RH  064%=      5-min Rain = 0
KCR1 110815Z 24003KT 18/11 A3017 RMK A01 T01760106  RH  063%=      5-min Rain = 0
KCR1 110816Z 24003KT 18/11 A3017 RMK A01 T01760106  RH  063%=      5-min Rain = 0
KCR1 110817Z 24003KT 18/11 A3017 RMK A01 T01760106  RH  063%=      5-min Rain = 0
KCR1 110818Z 24004KT 18/11 A3017 RMK A01 T01760106  RH  063%=      5-min Rain = 0
KCR1 110819Z 24004KT 18/11 A3017 RMK A01 T01760106  RH  063%=      5-min Rain = 0
KCR1 110820Z 24004KT 18/11 A3017 RMK A01 T01760105  RH  063%=      5-min Rain = 0
KCR1 110821Z 24004KT 18/11 A3017 RMK A01 T01760105  RH  063%=      5-min Rain = 0
KCR1 110822Z 24004KT 18/11 A3017 RMK A01 T01750105  RH  064%=      5-min Rain = 0
KCR1 110823Z 24004KT 18/11 A3017 RMK A01 T01750105  RH  064%=      5-min Rain = 0
KCR1 110824Z 24004KT 17/11 A3017 RMK A01 T01740105  RH  064%=      5-min Rain = 0
KCR1 110825Z 24004KT 17/11 A3017 RMK A01 T01740105  RH  064%=      5-min Rain = 0
KCR1 110826Z 24004KT 17/10 A3017 RMK A01 T01740104  RH  064%=      5-min Rain = 0
KCR1 110827Z 24004KT 17/10 A3017 RMK A01 T01740104  RH  064%=      5-min Rain = 0
KCR1 110828Z 24004KT 17/11 A3017 RMK A01 T01740105  RH  064%=      5-min Rain = 0
KCR1 110829Z 24004KT 17/11 A3017 RMK A01 T01730105  RH  064%=      5-min Rain = 0
KCR1 110830Z 24004KT 17/11 A3017 RMK A01 T01730105  RH  064%=      5-min Rain = 0
KCR1 110831Z 24005KT 17/11 A3017 RMK A01 T01730105  RH  064%=      5-min Rain = 0
KCR1 110832Z 23005KT 17/11 A3017 RMK A01 T01740105  RH  064%=      5-min Rain = 0
KCR1 110833Z 23005KT 17/11 A3017 RMK A01 T01740105  RH  064%=      5-min Rain = 0
KCR1 110834Z 23005KT 17/11 A3017 RMK A01 T01740105  RH  064%=      5-min Rain = 0
KCR1 110835Z 23005KT 17/11 A3017 RMK A01 T01740105  RH  064%=      5-min Rain = 0
KCR1 110836Z 23005KT 17/11 A3017 RMK A01 T01740105  RH  064%=      5-min Rain = 0
KCR1 110837Z 24005KT 17/11 A3017 RMK A01 T01730105  RH  064%=      5-min Rain = 0
KCR1 110838Z 24005KT 17/11 A3017 RMK A01 T01720105  RH  065%=      5-min Rain = 0
KCR1 110839Z 24005KT 17/11 A3016 RMK A01 T01710105  RH  065%=      5-min Rain = 0
KCR1 110840Z 24005KT 17/11 A3016 RMK A01 T01710105  RH  065%=      5-min Rain = 0
KCR1 110841Z 24005KT 17/11 A3016 RMK A01 T01710105  RH  065%=      5-min Rain = 0
KCR1 110842Z 24005KT 17/11 A3016 RMK A01 T01710105  RH  065%=      5-min Rain = 0
KCR1 110843Z 24005KT 17/11 A3017 RMK A01 T01710105  RH  065%=      5-min Rain = 0
KCR1 110844Z 24005KT 17/11 A3017 RMK A01 T01710105  RH  065%=      5-min Rain = 0
KCR1 110845Z 24005KT 17/11 A3017 RMK A01 T01700105  RH  066%=      5-min Rain = 0
KCR1 110846Z 24005KT 17/11 A3017 RMK A01 T01700105  RH  066%=      5-min Rain = 0
KCR1 110847Z 24005KT 17/11 A3017 RMK A01 T01690105  RH  066%=      5-min Rain = 0
KCR1 110848Z 24005KT 17/11 A3017 RMK A01 T01690105  RH  066%=      5-min Rain = 0
KCR1 110849Z 24005KT 17/10 A3017 RMK A01 T01690104  RH  066%=      5-min Rain = 0
KCR1 110850Z 24005KT 17/10 A3017 RMK A01 T01690104  RH  066%=      5-min Rain = 0
KCR1 110851Z 24005KT 17/11 A3017 RMK A01 T01690105  RH  065%=      5-min Rain = 0
KCR1 110852Z 24005KT 17/11 A3017 RMK A01 T01690105  RH  066%=      5-min Rain = 0
KCR1 110853Z 24006KT 17/11 A3017 RMK A01 T01690105  RH  066%=      5-min Rain = 0
KCR1 110854Z 24006KT 17/11 A3017 RMK A01 T01690105  RH  066%=      5-min Rain = 0
KCR1 110855Z 25006KT 17/11 A3017 RMK A01 T01690105  RH  066%=      5-min Rain = 0
KCR1 110856Z 24006KT 17/11 A3017 RMK A01 T01680105  RH  066%=      5-min Rain = 0
KCR1 110857Z 24005KT 17/11 A3017 RMK A01 T01670105  RH  067%=      5-min Rain = 0
KCR1 110858Z 24006KT 17/11 A3017 RMK A01 T01670105  RH  067%=      5-min Rain = 0
KCR1 110859Z 23006KT 17/11 A3017 RMK A01 T01670105  RH  067%=      5-min Rain = 0
KCR1 110900Z 23006KT 17/11 A3017 RMK A01 T01680105  RH  067%=      5-min Rain = 0
KCR1 110901Z 23005KT 17/11 A3017 RMK A01 T01680105  RH  066%=      5-min Rain = 0
KCR1 110902Z 23005KT 17/11 A3017 RMK A01 T01680105  RH  066%=      5-min Rain = 0
KCR1 110903Z 23005KT 17/11 A3017 RMK A01 T01680105  RH  067%=      5-min Rain = 0
KCR1 110904Z 24005KT 17/11 A3017 RMK A01 T01670105  RH  067%=      5-min Rain = 0
KCR1 110905Z 24005KT 17/11 A3017 RMK A01 T01660105  RH  067%=      5-min Rain = 0
KCR1 110906Z 24005KT 17/11 A3017 RMK A01 T01660105  RH  067%=      5-min Rain = 0
KCR1 110907Z 24005KT 17/11 A3017 RMK A01 T01660105  RH  067%=      5-min Rain = 0
KCR1 110908Z 24005KT 17/11 A3017 RMK A01 T01660105  RH  067%=      5-min Rain = 0
KCR1 110909Z 24005KT 17/10 A3017 RMK A01 T01650104  RH  067%=      5-min Rain = 0
KCR1 110910Z 24005KT 17/10 A3017 RMK A01 T01650104  RH  067%=      5-min Rain = 0
KCR1 110911Z 24005KT 17/10 A3017 RMK A01 T01650104  RH  067%=      5-min Rain = 0
KCR1 110912Z 24005KT 17/11 A3017 RMK A01 T01650105  RH  067%=      5-min Rain = 0
KCR1 110913Z 24005KT 17/11 A3017 RMK A01 T01650105  RH  067%=      5-min Rain = 0
KCR1 110914Z 24005KT 17/10 A3017 RMK A01 T01650104  RH  067%=      5-min Rain = 0
KCR1 110915Z 24005KT 17/10 A3017 RMK A01 T01650104  RH  067%=      5-min Rain = 0
KCR1 110916Z 25005KT 16/10 A3017 RMK A01 T01640104  RH  068%=      5-min Rain = 0
KCR1 110917Z 24005KT 16/10 A3017 RMK A01 T01640104  RH  068%=      5-min Rain = 0
KCR1 110918Z 24005KT 16/11 A3017 RMK A01 T01640105  RH  068%=      5-min Rain = 0
KCR1 110919Z 24005KT 16/11 A3017 RMK A01 T01640105  RH  068%=      5-min Rain = 0
KCR1 110920Z 24005KT 17/11 A3017 RMK A01 T01650105  RH  068%=      5-min Rain = 0
KCR1 110921Z 24005KT 17/11 A3017 RMK A01 T01660105  RH  067%=      5-min Rain = 0
KCR1 110922Z 24005KT 17/11 A3017 RMK A01 T01660105  RH  067%=      5-min Rain = 0
KCR1 110923Z 24005KT 17/11 A3017 RMK A01 T01660105  RH  067%=      5-min Rain = 0
KCR1 110924Z 24005KT 17/11 A3017 RMK A01 T01670105  RH  067%=      5-min Rain = 0
KCR1 110925Z 24005KT 17/11 A3017 RMK A01 T01670105  RH  067%=      5-min Rain = 0
KCR1 110926Z 24005KT 17/11 A3017 RMK A01 T01680105  RH  066%=      5-min Rain = 0
KCR1 110927Z 24005KT 17/11 A3017 RMK A01 T01680105  RH  066%=      5-min Rain = 0
KCR1 110928Z 24004KT 17/11 A3017 RMK A01 T01680105  RH  066%=      5-min Rain = 0
KCR1 110929Z 24005KT 17/11 A3017 RMK A01 T01680105  RH  066%=      5-min Rain = 0
KCR1 110930Z 24005KT 17/11 A3017 RMK A01 T01690105  RH  066%=      5-min Rain = 0
KCR1 110931Z 24005KT 17/11 A3017 RMK A01 T01690105  RH  066%=      5-min Rain = 0
KCR1 110932Z 24005KT 17/11 A3017 RMK A01 T01680105  RH  066%=      5-min Rain = 0
KCR1 110933Z 24005KT 17/11 A3017 RMK A01 T01680105  RH  066%=      5-min Rain = 0
KCR1 110934Z 24005KT 17/11 A3017 RMK A01 T01670105  RH  066%=      5-min Rain = 0
KCR1 110935Z 24005KT 17/11 A3017 RMK A01 T01670105  RH  067%=      5-min Rain = 0
KCR1 110936Z 24005KT 17/11 A3017 RMK A01 T01670105  RH  067%=      5-min Rain = 0
KCR1 110937Z 24005KT 17/11 A3017 RMK A01 T01660105  RH  067%=      5-min Rain = 0
KCR1 110938Z 24005KT 17/11 A3017 RMK A01 T01660105  RH  067%=      5-min Rain = 0
KCR1 110939Z 24005KT 17/11 A3017 RMK A01 T01660105  RH  067%=      5-min Rain = 0
KCR1 110940Z 24005KT 17/11 A3017 RMK A01 T01660105  RH  067%=      5-min Rain = 0
KCR1 110941Z 24005KT 17/11 A3017 RMK A01 T01660105  RH  067%=      5-min Rain = 0
KCR1 110942Z 23005KT 17/11 A3017 RMK A01 T01660105  RH  067%=      5-min Rain = 0
KCR1 110943Z 23004KT 17/11 A3017 RMK A01 T01660105  RH  067%=      5-min Rain = 0
KCR1 110944Z 23005KT 17/11 A3017 RMK A01 T01660105  RH  067%=      5-min Rain = 0
KCR1 110945Z 23005KT 17/11 A3017 RMK A01 T01660105  RH  067%=      5-min Rain = 0
KCR1 110946Z 23005KT 17/11 A3017 RMK A01 T01670105  RH  067%=      5-min Rain = 0
KCR1 110947Z 24005KT 17/11 A3017 RMK A01 T01680105  RH  066%=      5-min Rain = 0
KCR1 110948Z 24005KT 17/11 A3017 RMK A01 T01680105  RH  066%=      5-min Rain = 0
KCR1 110949Z 24005KT 17/11 A3017 RMK A01 T01680105  RH  066%=      5-min Rain = 0
KCR1 110950Z 24005KT 17/11 A3017 RMK A01 T01690105  RH  066%=      5-min Rain = 0
KCR1 110951Z 24004KT 17/11 A3017 RMK A01 T01690105  RH  066%=      5-min Rain = 0
KCR1 110952Z 24004KT 17/11 A3017 RMK A01 T01690105  RH  066%=      5-min Rain = 0
KCR1 110953Z 24004KT 17/11 A3017 RMK A01 T01690105  RH  066%=      5-min Rain = 0
KCR1 110954Z 23004KT 17/11 A3017 RMK A01 T01700105  RH  066%=      5-min Rain = 0
KCR1 110955Z 24004KT 17/11 A3017 RMK A01 T01700105  RH  066%=      5-min Rain = 0
KCR1 110956Z 24004KT 17/11 A3017 RMK A01 T01700105  RH  066%=      5-min Rain = 0
KCR1 110957Z 24004KT 17/11 A3017 RMK A01 T01700105  RH  066%=      5-min Rain = 0
KCR1 110958Z 24004KT 17/11 A3017 RMK A01 T01700105  RH  066%=      5-min Rain = 0
KCR1 110959Z 24004KT 17/11 A3017 RMK A01 T01700105  RH  065%=      5-min Rain = 0
KCR1 111000Z 23004KT 17/11 A3017 RMK A01 T01700105  RH  066%=      5-min Rain = 0
KCR1 111001Z 23004KT 17/11 A3017 RMK A01 T01700105  RH  065%=      5-min Rain = 0
KCR1 111002Z 23004KT 17/11 A3017 RMK A01 T01710106  RH  065%=      5-min Rain = 0
KCR1 111003Z 23004KT 17/11 A3017 RMK A01 T01710105  RH  065%=      5-min Rain = 0
KCR1 111004Z 24004KT 17/11 A3017 RMK A01 T01710106  RH  065%=      5-min Rain = 0
KCR1 111005Z 24004KT 17/11 A3017 RMK A01 T01700105  RH  066%=      5-min Rain = 0
KCR1 111006Z 24004KT 17/11 A3017 RMK A01 T01700105  RH  066%=      5-min Rain = 0
KCR1 111007Z 24004KT 17/11 A3017 RMK A01 T01700106  RH  066%=      5-min Rain = 0
KCR1 111008Z 24004KT 17/11 A3017 RMK A01 T01700106  RH  066%=      5-min Rain = 0
KCR1 111009Z 24004KT 17/11 A3017 RMK A01 T01690106  RH  066%=      5-min Rain = 0
KCR1 111010Z 24004KT 17/11 A3017 RMK A01 T01690105  RH  066%=      5-min Rain = 0
KCR1 111011Z 24004KT 17/11 A3017 RMK A01 T01690106  RH  066%=      5-min Rain = 0
KCR1 111012Z 24004KT 17/11 A3017 RMK A01 T01690106  RH  066%=      5-min Rain = 0
KCR1 111013Z 24004KT 17/11 A3017 RMK A01 T01690106  RH  066%=      5-min Rain = 0
KCR1 111014Z 24004KT 17/11 A3017 RMK A01 T01690106  RH  066%=      5-min Rain = 0
KCR1 111015Z 24004KT 17/11 A3017 RMK A01 T01690106  RH  066%=      5-min Rain = 0
KCR1 111016Z 24004KT 17/11 A3017 RMK A01 T01690106  RH  066%=      5-min Rain = 0
KCR1 111017Z 24004KT 17/11 A3017 RMK A01 T01690106  RH  066%=      5-min Rain = 0
KCR1 111018Z 24004KT 17/11 A3017 RMK A01 T01690106  RH  066%=      5-min Rain = 0
KCR1 111019Z 24004KT 17/11 A3017 RMK A01 T01690106  RH  066%=      5-min Rain = 0
KCR1 111020Z 24004KT 17/11 A3017 RMK A01 T01690106  RH  067%=      5-min Rain = 0
KCR1 111021Z 24003KT 17/11 A3017 RMK A01 T01680106  RH  067%=      5-min Rain = 0
KCR1 111022Z 24003KT 17/11 A3017 RMK A01 T01680106  RH  067%=      5-min Rain = 0
KCR1 111023Z 24003KT 17/11 A3017 RMK A01 T01680106  RH  067%=      5-min Rain = 0
KCR1 111024Z 24003KT 17/11 A3017 RMK A01 T01680106  RH  067%=      5-min Rain = 0
KCR1 111025Z 24002KT 17/11 A3017 RMK A01 T01680106  RH  067%=      5-min Rain = 0
KCR1 111026Z 24002KT 17/11 A3017 RMK A01 T01680106  RH  067%=      5-min Rain = 0
KCR1 111027Z 24002KT 17/11 A3018 RMK A01 T01680106  RH  067%=      5-min Rain = 0
KCR1 111028Z 25002KT 17/11 A3018 RMK A01 T01680106  RH  067%=      5-min Rain = 0
KCR1 111029Z 25002KT 17/11 A3018 RMK A01 T01680105  RH  066%=      5-min Rain = 0
KCR1 111030Z 25002KT 17/11 A3018 RMK A01 T01690105  RH  066%=      5-min Rain = 0
KCR1 111031Z 25002KT 17/11 A3017 RMK A01 T01700106  RH  066%=      5-min Rain = 0
KCR1 111032Z 25002KT 17/11 A3017 RMK A01 T01700106  RH  066%=      5-min Rain = 0
KCR1 111033Z 26002KT 17/11 A3017 RMK A01 T01700107  RH  067%=      5-min Rain = 0
KCR1 111034Z 26002KT 17/11 A3017 RMK A01 T01690108  RH  067%=      5-min Rain = 0
KCR1 111035Z 27002KT 17/11 A3017 RMK A01 T01690107  RH  067%=      5-min Rain = 0
KCR1 111036Z 27001KT 17/11 A3017 RMK A01 T01680106  RH  067%=      5-min Rain = 0
KCR1 111037Z 28001KT 17/11 A3017 RMK A01 T01670107  RH  068%=      5-min Rain = 0
KCR1 111038Z 28001KT 17/11 A3017 RMK A01 T01650107  RH  068%=      5-min Rain = 0
KCR1 111039Z 28001KT 16/11 A3017 RMK A01 T01640107  RH  069%=      5-min Rain = 0
KCR1 111040Z 29001KT 16/11 A3017 RMK A01 T01630107  RH  069%=      5-min Rain = 0
KCR1 111041Z 28001KT 16/11 A3017 RMK A01 T01620107  RH  070%=      5-min Rain = 0
KCR1 111042Z 28001KT 16/11 A3017 RMK A01 T01620107  RH  070%=      5-min Rain = 0
KCR1 111043Z 28001KT 16/11 A3017 RMK A01 T01620106  RH  070%=      5-min Rain = 0
KCR1 111044Z 28001KT 16/11 A3017 RMK A01 T01620105  RH  069%=      5-min Rain = 0
KCR1 111045Z 28001KT 16/11 A3017 RMK A01 T01620105  RH  069%=      5-min Rain = 0
KCR1 111046Z 27001KT 16/11 A3017 RMK A01 T01620105  RH  069%=      5-min Rain = 0
KCR1 111047Z 27001KT 16/11 A3017 RMK A01 T01620105  RH  069%=      5-min Rain = 0
KCR1 111048Z 27001KT 16/11 A3017 RMK A01 T01620105  RH  069%=      5-min Rain = 0
KCR1 111049Z 27001KT 16/11 A3017 RMK A01 T01610106  RH  070%=      5-min Rain = 0
KCR1 111050Z 28001KT 16/11 A3017 RMK A01 T01610106  RH  070%=      5-min Rain = 0
KCR1 111051Z 28001KT 16/11 A3017 RMK A01 T01610107  RH  070%=      5-min Rain = 0
KCR1 111052Z 28001KT 16/11 A3017 RMK A01 T01610107  RH  070%=      5-min Rain = 0
KCR1 111053Z 28001KT 16/11 A3017 RMK A01 T01600107  RH  070%=      5-min Rain = 0
KCR1 111054Z 28001KT 16/11 A3017 RMK A01 T01600107  RH  071%=      5-min Rain = 0
KCR1 111055Z 28001KT 16/11 A3017 RMK A01 T01600107  RH  071%=      5-min Rain = 0
KCR1 111056Z 28001KT 16/11 A3018 RMK A01 T01600107  RH  071%=      5-min Rain = 0
KCR1 111057Z 28001KT 16/11 A3018 RMK A01 T01600107  RH  071%=      5-min Rain = 0
KCR1 111058Z 28001KT 16/11 A3018 RMK A01 T01590107  RH  071%=      5-min Rain = 0
KCR1 111059Z 28000KT 16/11 A3018 RMK A01 T01580106  RH  071%=      5-min Rain = 0
KCR1 111100Z 28001KT 16/11 A3018 RMK A01 T01580107  RH  072%=      5-min Rain = 0
KCR1 111101Z 29001KT 16/11 A3018 RMK A01 T01580107  RH  072%=      5-min Rain = 0
KCR1 111102Z 29001KT 16/11 A3018 RMK A01 T01570107  RH  072%=      5-min Rain = 0
KCR1 111103Z 29001KT 16/11 A3018 RMK A01 T01570107  RH  072%=      5-min Rain = 0
KCR1 111104Z 29001KT 16/11 A3018 RMK A01 T01570107  RH  072%=      5-min Rain = 0
KCR1 111105Z 29001KT 16/11 A3018 RMK A01 T01570107  RH  072%=      5-min Rain = 0
KCR1 111106Z 29001KT 16/11 A3018 RMK A01 T01570107  RH  072%=      5-min Rain = 0
KCR1 111107Z 29000KT 16/11 A3018 RMK A01 T01560108  RH  073%=      5-min Rain = 0
KCR1 111108Z 29000KT 16/11 A3018 RMK A01 T01560108  RH  073%=      5-min Rain = 0
KCR1 111109Z 29001KT 16/11 A3018 RMK A01 T01560107  RH  073%=      5-min Rain = 0
KCR1 111110Z 29001KT 16/11 A3018 RMK A01 T01560107  RH  073%=      5-min Rain = 0
KCR1 111111Z 29000KT 16/11 A3018 RMK A01 T01550107  RH  073%=      5-min Rain = 0
KCR1 111112Z 29000KT 16/11 A3018 RMK A01 T01550107  RH  073%=      5-min Rain = 0
KCR1 111113Z 29001KT 16/11 A3018 RMK A01 T01550107  RH  073%=      5-min Rain = 0
KCR1 111114Z 29001KT 16/11 A3018 RMK A01 T01550107  RH  073%=      5-min Rain = 0
KCR1 111115Z 29001KT 16/11 A3018 RMK A01 T01550106  RH  073%=      5-min Rain = 0
KCR1 111116Z 30001KT 16/11 A3018 RMK A01 T01550106  RH  073%=      5-min Rain = 0
KCR1 111117Z 30001KT 16/11 A3018 RMK A01 T01550107  RH  073%=      5-min Rain = 0
KCR1 111118Z 31001KT 16/11 A3018 RMK A01 T01550106  RH  073%=      5-min Rain = 0
KCR1 111119Z 31001KT 16/11 A3018 RMK A01 T01550107  RH  073%=      5-min Rain = 0
KCR1 111120Z 30001KT 16/11 A3018 RMK A01 T01550107  RH  073%=      5-min Rain = 0
KCR1 111121Z 30001KT 15/11 A3018 RMK A01 T01540107  RH  073%=      5-min Rain = 0
KCR1 111122Z 30001KT 15/11 A3018 RMK A01 T01540107  RH  073%=      5-min Rain = 0
KCR1 111123Z 30001KT 15/11 A3018 RMK A01 T01540107  RH  073%=      5-min Rain = 0
KCR1 111124Z 32001KT 15/11 A3018 RMK A01 T01540106  RH  073%=      5-min Rain = 0
KCR1 111125Z 32001KT 15/11 A3018 RMK A01 T01540106  RH  073%=      5-min Rain = 0
KCR1 111126Z 32001KT 15/11 A3018 RMK A01 T01540106  RH  073%=      5-min Rain = 0
KCR1 111127Z 32001KT 15/11 A3018 RMK A01 T01540107  RH  073%=      5-min Rain = 0
KCR1 111128Z 33001KT 15/11 A3018 RMK A01 T01540107  RH  073%=      5-min Rain = 0
KCR1 111129Z 34001KT 15/11 A3018 RMK A01 T01530106  RH  073%=      5-min Rain = 0
KCR1 111130Z 34001KT 15/11 A3018 RMK A01 T01530106  RH  073%=      5-min Rain = 0
KCR1 111131Z 33001KT 15/11 A3018 RMK A01 T01530106  RH  073%=      5-min Rain = 0
KCR1 111132Z 33001KT 15/11 A3018 RMK A01 T01530106  RH  073%=      5-min Rain = 0
KCR1 111133Z 33001KT 15/11 A3018 RMK A01 T01530106  RH  073%=      5-min Rain = 0
KCR1 111134Z 34001KT 15/11 A3018 RMK A01 T01530106  RH  073%=      5-min Rain = 0
KCR1 111135Z 34001KT 15/11 A3018 RMK A01 T01530106  RH  073%=      5-min Rain = 0
KCR1 111136Z 00001KT 15/11 A3018 RMK A01 T01530105  RH  073%=      5-min Rain = 0
KCR1 111137Z 00001KT 15/11 A3018 RMK A01 T01530105  RH  073%=      5-min Rain = 0
KCR1 111138Z 00001KT 15/11 A3018 RMK A01 T01530105  RH  073%=      5-min Rain = 0
KCR1 111139Z 00001KT 15/11 A3018 RMK A01 T01530105  RH  073%=      5-min Rain = 0
KCR1 111140Z 35001KT 15/11 A3018 RMK A01 T01530105  RH  073%=      5-min Rain = 0
KCR1 111141Z 35001KT 15/11 A3018 RMK A01 T01540105  RH  073%=      5-min Rain = 0
KCR1 111142Z 35001KT 15/11 A3018 RMK A01 T01540106  RH  073%=      5-min Rain = 0
KCR1 111143Z 35001KT 15/11 A3018 RMK A01 T01540106  RH  073%=      5-min Rain = 0
KCR1 111144Z 35001KT 15/11 A3018 RMK A01 T01540107  RH  073%=      5-min Rain = 0
KCR1 111145Z 35001KT 15/11 A3018 RMK A01 T01530107  RH  074%=      5-min Rain = 0
KCR1 111146Z 35001KT 15/11 A3018 RMK A01 T01530106  RH  074%=      5-min Rain = 0
KCR1 111147Z 35001KT 15/11 A3018 RMK A01 T01530106  RH  074%=      5-min Rain = 0
KCR1 111148Z 35001KT 15/11 A3018 RMK A01 T01520106  RH  074%=      5-min Rain = 0
KCR1 111149Z 35002KT 15/11 A3018 RMK A01 T01520106  RH  074%=      5-min Rain = 0
KCR1 111150Z 35002KT 15/11 A3018 RMK A01 T01520106  RH  074%=      5-min Rain = 0
KCR1 111151Z 35002KT 15/11 A3018 RMK A01 T01520106  RH  074%=      5-min Rain = 0
KCR1 111152Z 34002KT 15/11 A3018 RMK A01 T01520106  RH  074%=      5-min Rain = 0
KCR1 111153Z 34002KT 15/11 A3018 RMK A01 T01520106  RH  074%=      5-min Rain = 0
KCR1 111154Z 34002KT 15/11 A3018 RMK A01 T01520106  RH  074%=      5-min Rain = 0
KCR1 111155Z 33002KT 15/11 A3018 RMK A01 T01520106  RH  074%=      5-min Rain = 0
KCR1 111156Z 34002KT 15/11 A3018 RMK A01 T01520107  RH  074%=      5-min Rain = 0
KCR1 111157Z 34002KT 15/11 A3018 RMK A01 T01520107  RH  074%=      5-min Rain = 0
KCR1 111158Z 34001KT 15/11 A3018 RMK A01 T01520107  RH  074%=      5-min Rain = 0
KCR1 111159Z 33002KT 15/11 A3018 RMK A01 T01520107  RH  074%=      5-min Rain = 0
KCR1 111200Z 33002KT 15/11 A3018 RMK A01 T01520108  RH  074%=      5-min Rain = 0
KCR1 111201Z 33002KT 15/11 A3018 RMK A01 T01520107  RH  075%=      5-min Rain = 0
KCR1 111202Z 33002KT 15/11 A3018 RMK A01 T01520108  RH  075%=      5-min Rain = 0
KCR1 111203Z 33002KT 15/11 A3018 RMK A01 T01510107  RH  075%=      5-min Rain = 0
KCR1 111204Z 33002KT 15/11 A3018 RMK A01 T01510107  RH  075%=      5-min Rain = 0
KCR1 111205Z 33002KT 15/11 A3018 RMK A01 T01500107  RH  076%=      5-min Rain = 0
KCR1 111206Z 33002KT 15/11 A3018 RMK A01 T01500107  RH  076%=      5-min Rain = 0
KCR1 111207Z 33002KT 15/11 A3018 RMK A01 T01490107  RH  076%=      5-min Rain = 0
KCR1 111208Z 32002KT 15/11 A3018 RMK A01 T01480107  RH  076%=      5-min Rain = 0
KCR1 111209Z 32002KT 15/11 A3018 RMK A01 T01480107  RH  076%=      5-min Rain = 0
KCR1 111210Z 32002KT 15/11 A3018 RMK A01 T01480107  RH  077%=      5-min Rain = 0
KCR1 111211Z 32002KT 15/11 A3018 RMK A01 T01480107  RH  077%=      5-min Rain = 0
KCR1 111212Z 32002KT 15/11 A3018 RMK A01 T01480107  RH  076%=      5-min Rain = 0
KCR1 111213Z 32003KT 15/11 A3018 RMK A01 T01490107  RH  076%=      5-min Rain = 0
KCR1 111214Z 32002KT 15/11 A3018 RMK A01 T01490107  RH  076%=      5-min Rain = 0
KCR1 111215Z 33003KT 15/11 A3018 RMK A01 T01490107  RH  076%=      5-min Rain = 0
KCR1 111216Z 33003KT 15/11 A3018 RMK A01 T01500107  RH  076%=      5-min Rain = 0
KCR1 111217Z 33003KT 15/11 A3018 RMK A01 T01500107  RH  076%=      5-min Rain = 0
KCR1 111218Z 34003KT 15/11 A3018 RMK A01 T01500107  RH  076%=      5-min Rain = 0
KCR1 111219Z 34003KT 15/11 A3018 RMK A01 T01500107  RH  076%=      5-min Rain = 0
KCR1 111220Z 34004KT 15/11 A3018 RMK A01 T01500108  RH  076%=      5-min Rain = 0
KCR1 111221Z 34004KT 15/11 A3018 RMK A01 T01500107  RH  076%=      5-min Rain = 0
KCR1 111222Z 34004KT 15/11 A3019 RMK A01 T01490107  RH  076%=      5-min Rain = 0
KCR1 111223Z 34004KT 15/11 A3019 RMK A01 T01490107  RH  076%=      5-min Rain = 0
KCR1 111224Z 34004KT 15/11 A3019 RMK A01 T01500107  RH  075%=      5-min Rain = 0
KCR1 111225Z 34004KT 15/11 A3019 RMK A01 T01500107  RH  075%=      5-min Rain = 0
KCR1 111226Z 34004KT 15/11 A3019 RMK A01 T01500107  RH  075%=      5-min Rain = 0
KCR1 111227Z 34004KT 15/11 A3019 RMK A01 T01500106  RH  075%=      5-min Rain = 0
KCR1 111228Z 34004KT 15/11 A3019 RMK A01 T01510107  RH  075%=      5-min Rain = 0
KCR1 111229Z 34004KT 15/11 A3019 RMK A01 T01510106  RH  075%=      5-min Rain = 0
KCR1 111230Z 34004KT 15/11 A3019 RMK A01 T01510106  RH  075%=      5-min Rain = 0
KCR1 111231Z 34004KT 15/11 A3019 RMK A01 T01510106  RH  075%=      5-min Rain = 0
KCR1 111232Z 34004KT 15/11 A3019 RMK A01 T01510106  RH  075%=      5-min Rain = 0
KCR1 111233Z 34004KT 15/11 A3019 RMK A01 T01510106  RH  075%=      5-min Rain = 0
KCR1 111234Z 34004KT 15/11 A3019 RMK A01 T01510106  RH  075%=      5-min Rain = 0
KCR1 111235Z 34004KT 15/11 A3019 RMK A01 T01510106  RH  074%=      5-min Rain = 0
KCR1 111236Z 34004KT 15/11 A3019 RMK A01 T01510106  RH  074%=      5-min Rain = 0
KCR1 111237Z 34004KT 15/11 A3019 RMK A01 T01500105  RH  074%=      5-min Rain = 0
KCR1 111238Z 34004KT 15/11 A3019 RMK A01 T01500105  RH  074%=      5-min Rain = 0
KCR1 111239Z 34004KT 15/11 A3019 RMK A01 T01500106  RH  075%=      5-min Rain = 0
KCR1 111240Z 34004KT 15/11 A3019 RMK A01 T01500105  RH  075%=      5-min Rain = 0
KCR1 111241Z 34004KT 15/11 A3019 RMK A01 T01500105  RH  075%=      5-min Rain = 0
KCR1 111242Z 34004KT 15/11 A3019 RMK A01 T01500105  RH  075%=      5-min Rain = 0
KCR1 111243Z 34004KT 15/11 A3019 RMK A01 T01500105  RH  075%=      5-min Rain = 0
KCR1 111244Z 33004KT 15/11 A3019 RMK A01 T01500105  RH  075%=      5-min Rain = 0
KCR1 111245Z 33004KT 15/11 A3019 RMK A01 T01500106  RH  075%=      5-min Rain = 0
KCR1 111246Z 33004KT 15/11 A3019 RMK A01 T01490106  RH  075%=      5-min Rain = 0
KCR1 111247Z 33004KT 15/11 A3019 RMK A01 T01490105  RH  075%=      5-min Rain = 0
KCR1 111248Z 33004KT 15/11 A3019 RMK A01 T01500106  RH  075%=      5-min Rain = 0
KCR1 111249Z 33004KT 15/11 A3019 RMK A01 T01500106  RH  075%=      5-min Rain = 0
KCR1 111250Z 33004KT 15/11 A3019 RMK A01 T01510106  RH  074%=      5-min Rain = 0
KCR1 111251Z 33004KT 15/11 A3019 RMK A01 T01510106  RH  074%=      5-min Rain = 0
KCR1 111252Z 33004KT 15/11 A3019 RMK A01 T01520106  RH  074%=      5-min Rain = 0
KCR1 111253Z 33004KT 15/11 A3019 RMK A01 T01530107  RH  074%=      5-min Rain = 0
KCR1 111254Z 33004KT 15/11 A3019 RMK A01 T01530107  RH  074%=      5-min Rain = 0
KCR1 111255Z 32004KT 15/11 A3019 RMK A01 T01540106  RH  073%=      5-min Rain = 0
KCR1 111256Z 32004KT 16/11 A3019 RMK A01 T01550107  RH  073%=      5-min Rain = 0
KCR1 111257Z 32004KT 16/11 A3019 RMK A01 T01550107  RH  073%=      5-min Rain = 0
KCR1 111258Z 32003KT 16/11 A3019 RMK A01 T01560107  RH  073%=      5-min Rain = 0
KCR1 111259Z 32004KT 16/11 A3019 RMK A01 T01570108  RH  073%=      5-min Rain = 0
KCR1 111300Z 33004KT 16/11 A3019 RMK A01 T01580108  RH  072%=      5-min Rain = 0
KCR1 111301Z 33004KT 16/11 A3019 RMK A01 T01580108  RH  072%=      5-min Rain = 0
KCR1 111302Z 33004KT 16/11 A3019 RMK A01 T01590108  RH  072%=      5-min Rain = 0
KCR1 111303Z 33003KT 16/11 A3019 RMK A01 T01600109  RH  071%=      5-min Rain = 0
KCR1 111304Z 33003KT 16/11 A3019 RMK A01 T01610109  RH  071%=      5-min Rain = 0
KCR1 111305Z 33003KT 16/11 A3019 RMK A01 T01610108  RH  071%=      5-min Rain = 0
KCR1 111306Z 32003KT 16/11 A3019 RMK A01 T01620109  RH  071%=      5-min Rain = 0
KCR1 111307Z 32003KT 16/11 A3019 RMK A01 T01630109  RH  070%=      5-min Rain = 0
KCR1 111308Z 32003KT 16/11 A3019 RMK A01 T01630109  RH  070%=      5-min Rain = 0
KCR1 111309Z 32003KT 16/11 A3019 RMK A01 T01640111  RH  071%=      5-min Rain = 0
KCR1 111310Z 32003KT 17/11 A302 RMK A01 T01650112  RH  071%=      5-min Rain = 0
KCR1 111311Z 33003KT 17/11 A302 RMK A01 T01660112  RH  071%=      5-min Rain = 0
KCR1 111312Z 33004KT 17/11 A302 RMK A01 T01670110  RH  069%=      5-min Rain = 0
KCR1 111313Z 33003KT 17/11 A302 RMK A01 T01680110  RH  069%=      5-min Rain = 0
KCR1 111314Z 33003KT 17/11 A302 RMK A01 T01680111  RH  069%=      5-min Rain = 0
KCR1 111315Z 33003KT 17/11 A302 RMK A01 T01680111  RH  069%=      5-min Rain = 0
KCR1 111316Z 33004KT 17/11 A302 RMK A01 T01690111  RH  069%=      5-min Rain = 0
KCR1 111317Z 33004KT 17/11 A302 RMK A01 T01690111  RH  068%=      5-min Rain = 0
KCR1 111318Z 33004KT 17/11 A302 RMK A01 T01690111  RH  068%=      5-min Rain = 0
KCR1 111319Z 33004KT 17/11 A302 RMK A01 T01700111  RH  068%=      5-min Rain = 0
KCR1 111320Z 33005KT 17/11 A302 RMK A01 T01690110  RH  068%=      5-min Rain = 0
KCR1 111321Z 33005KT 17/11 A302 RMK A01 T01700110  RH  068%=      5-min Rain = 0
KCR1 111322Z 33005KT 17/11 A302 RMK A01 T01680109  RH  068%=      5-min Rain = 0
KCR1 111323Z 33004KT 17/11 A302 RMK A01 T01680109  RH  068%=      5-min Rain = 0
KCR1 111324Z 33004KT 17/11 A302 RMK A01 T01670109  RH  069%=      5-min Rain = 0
KCR1 111325Z 34004KT 17/11 A302 RMK A01 T01670109  RH  069%=      5-min Rain = 0
KCR1 111326Z 34004KT 17/11 A302 RMK A01 T01670110  RH  069%=      5-min Rain = 0
KCR1 111327Z 34004KT 17/11 A302 RMK A01 T01680111  RH  069%=      5-min Rain = 0
KCR1 111328Z 34004KT 17/11 A302 RMK A01 T01690111  RH  069%=      5-min Rain = 0
KCR1 111329Z 34005KT 17/11 A302 RMK A01 T01700110  RH  068%=      5-min Rain = 0
KCR1 111330Z 34004KT 17/11 A302 RMK A01 T01710110  RH  067%=      5-min Rain = 0
KCR1 111331Z 34005KT 17/11 A302 RMK A01 T01710110  RH  067%=      5-min Rain = 0
KCR1 111332Z 34004KT 17/11 A302 RMK A01 T01720110  RH  067%=      5-min Rain = 0
KCR1 111333Z 35004KT 17/11 A302 RMK A01 T01720110  RH  067%=      5-min Rain = 0
KCR1 111334Z 34004KT 17/11 A302 RMK A01 T01730110  RH  067%=      5-min Rain = 0
KCR1 111335Z 34004KT 17/11 A302 RMK A01 T01740111  RH  066%=      5-min Rain = 0
KCR1 111336Z 34005KT 18/11 A302 RMK A01 T01750111  RH  066%=      5-min Rain = 0
KCR1 111337Z 34005KT 18/11 A302 RMK A01 T01750110  RH  066%=      5-min Rain = 0
KCR1 111338Z 34004KT 18/11 A302 RMK A01 T01750111  RH  066%=      5-min Rain = 0
KCR1 111339Z 34004KT 18/11 A302 RMK A01 T01760111  RH  066%=      5-min Rain = 0
KCR1 111340Z 34004KT 18/11 A302 RMK A01 T01770112  RH  066%=      5-min Rain = 0
KCR1 111341Z 34004KT 18/11 A302 RMK A01 T01790112  RH  065%=      5-min Rain = 0
KCR1 111342Z 34004KT 18/11 A302 RMK A01 T01800113  RH  065%=      5-min Rain = 0
KCR1 111343Z 34004KT 18/11 A302 RMK A01 T01800113  RH  065%=      5-min Rain = 0
KCR1 111344Z 34005KT 18/11 A302 RMK A01 T01810113  RH  064%=      5-min Rain = 0
KCR1 111345Z 34005KT 18/11 A302 RMK A01 T01820112  RH  063%=      5-min Rain = 0
KCR1 111346Z 34005KT 18/11 A302 RMK A01 T01820112  RH  063%=      5-min Rain = 0
KCR1 111347Z 34005KT 18/11 A302 RMK A01 T01830112  RH  063%=      5-min Rain = 0
KCR1 111348Z 34004KT 18/11 A302 RMK A01 T01830112  RH  063%=      5-min Rain = 0
KCR1 111349Z 34004KT 18/11 A302 RMK A01 T01830113  RH  064%=      5-min Rain = 0
KCR1 111350Z 34003KT 18/11 A302 RMK A01 T01840114  RH  064%=      5-min Rain = 0
KCR1 111351Z 35004KT 19/11 A302 RMK A01 T01850113  RH  063%=      5-min Rain = 0
KCR1 111352Z 34004KT 19/11 A302 RMK A01 T01860113  RH  062%=      5-min Rain = 0
KCR1 111353Z 34004KT 19/11 A302 RMK A01 T01870114  RH  062%=      5-min Rain = 0
KCR1 111354Z 34004KT 19/11 A302 RMK A01 T01870113  RH  062%=      5-min Rain = 0
KCR1 111355Z 35004KT 19/11 A3021 RMK A01 T01870114  RH  062%=      5-min Rain = 0
KCR1 111356Z 34004KT 19/11 A3021 RMK A01 T01890114  RH  062%=      5-min Rain = 0
KCR1 111357Z 35003KT 19/11 A3021 RMK A01 T01880114  RH  062%=      5-min Rain = 0
KCR1 111358Z 35004KT 19/11 A3021 RMK A01 T01890114  RH  062%=      5-min Rain = 0
KCR1 111359Z 35003KT 19/12 A3021 RMK A01 T01890115  RH  062%=      5-min Rain = 0
KCR1 111400Z 35003KT 19/12 A3021 RMK A01 T01900115  RH  062%=      5-min Rain = 0
KCR1 111401Z 34003KT 19/12 A3021 RMK A01 T01910115  RH  061%=      5-min Rain = 0
KCR1 111402Z 34003KT 19/11 A3021 RMK A01 T01910114  RH  061%=      5-min Rain = 0
KCR1 111403Z 35003KT 19/12 A3021 RMK A01 T01920116  RH  061%=      5-min Rain = 0
KCR1 111404Z 34003KT 19/12 A3021 RMK A01 T01930115  RH  060%=      5-min Rain = 0
KCR1 111405Z 33003KT 19/12 A3021 RMK A01 T01930115  RH  060%=      5-min Rain = 0
KCR1 111406Z 34003KT 19/12 A3021 RMK A01 T01930116  RH  061%=      5-min Rain = 0
KCR1 111407Z 34002KT 19/12 A3021 RMK A01 T01940117  RH  061%=      5-min Rain = 0
KCR1 111408Z 35003KT 20/12 A3021 RMK A01 T01960115  RH  060%=      5-min Rain = 0
KCR1 111409Z 36003KT 20/12 A3021 RMK A01 T01960117  RH  060%=      5-min Rain = 0
KCR1 111410Z 36003KT 20/12 A3021 RMK A01 T01970117  RH  060%=      5-min Rain = 0
KCR1 111411Z 35003KT 20/12 A3021 RMK A01 T01970117  RH  060%=      5-min Rain = 0
KCR1 111412Z 35002KT 20/12 A3021 RMK A01 T01980117  RH  060%=      5-min Rain = 0
KCR1 111413Z 35002KT 20/12 A3021 RMK A01 T01990116  RH  059%=      5-min Rain = 0
KCR1 111414Z 01002KT 20/12 A3021 RMK A01 T01990116  RH  059%=      5-min Rain = 0
KCR1 111415Z 01003KT 20/12 A3021 RMK A01 T01990116  RH  059%=      5-min Rain = 0
KCR1 111416Z 01003KT 20/12 A3021 RMK A01 T01990115  RH  058%=      5-min Rain = 0
KCR1 111417Z 00003KT 20/12 A3021 RMK A01 T02000115  RH  058%=      5-min Rain = 0
KCR1 111418Z 33002KT 20/11 A3021 RMK A01 T02010114  RH  057%=      5-min Rain = 0
KCR1 111419Z 35002KT 20/11 A3021 RMK A01 T02020114  RH  057%=      5-min Rain = 0
KCR1 111420Z 00002KT 20/12 A3021 RMK A01 T02030116  RH  057%=      5-min Rain = 0
KCR1 111421Z 32002KT 20/11 A3021 RMK A01 T02040114  RH  056%=      5-min Rain = 0
KCR1 111422Z 35001KT 21/11 A3021 RMK A01 T02050114  RH  056%=      5-min Rain = 0
KCR1 111423Z 03002KT 21/11 A3021 RMK A01 T02050114  RH  056%=      5-min Rain = 0
KCR1 111424Z 01002KT 21/11 A3021 RMK A01 T02060114  RH  055%=      5-min Rain = 0
KCR1 111425Z 00002KT 21/12 A3021 RMK A01 T02070115  RH  055%=      5-min Rain = 0
KCR1 111426Z 02001KT 21/11 A3021 RMK A01 T02070114  RH  055%=      5-min Rain = 0
KCR1 111427Z 34002KT 21/12 A3021 RMK A01 T02080115  RH  055%=      5-min Rain = 0
KCR1 111428Z 32000KT 21/11 A3021 RMK A01 T02080114  RH  055%=      5-min Rain = 0
KCR1 111429Z 35000KT 21/12 A3021 RMK A01 T02090115  RH  055%=      5-min Rain = 0
KCR1 111430Z 36000KT 21/12 A3021 RMK A01 T02100115  RH  055%=      5-min Rain = 0
KCR1 111431Z 36001KT 21/12 A3021 RMK A01 T02120115  RH  054%=      5-min Rain = 0
KCR1 111432Z 00001KT 21/12 A3021 RMK A01 T02120116  RH  054%=      5-min Rain = 0
KCR1 111433Z 32000KT 21/12 A3021 RMK A01 T02130117  RH  054%=      5-min Rain = 0
KCR1 111434Z 29002KT 21/11 A3021 RMK A01 T02140114  RH  053%=      5-min Rain = 0
KCR1 111435Z 30001KT 22/11 A3021 RMK A01 T02150114  RH  053%=      5-min Rain = 0
KCR1 111436Z 27001KT 22/11 A3021 RMK A01 T02150114  RH  052%=      5-min Rain = 0
KCR1 111437Z 28001KT 22/11 A3021 RMK A01 T02160113  RH  052%=      5-min Rain = 0
KCR1 111438Z 19001KT 22/11 A3021 RMK A01 T02160114  RH  052%=      5-min Rain = 0
KCR1 111439Z 20001KT 22/12 A3021 RMK A01 T02180115  RH  052%=      5-min Rain = 0
KCR1 111440Z 24001KT 22/12 A3021 RMK A01 T02190116  RH  052%=      5-min Rain = 0
KCR1 111441Z 23002KT 22/11 A3021 RMK A01 T02200114  RH  051%=      5-min Rain = 0
KCR1 111442Z 22002KT 22/11 A3021 RMK A01 T02200113  RH  051%=      5-min Rain = 0
KCR1 111443Z 19002KT 22/11 A3021 RMK A01 T02200114  RH  051%=      5-min Rain = 0
KCR1 111444Z 24001KT 22/11 A3021 RMK A01 T02200113  RH  051%=      5-min Rain = 0
KCR1 111445Z 24003KT 22/11 A3021 RMK A01 T02210114  RH  051%=      5-min Rain = 0
KCR1 111446Z 24003KT 22/11 A3021 RMK A01 T02210112  RH  050%=      5-min Rain = 0
KCR1 111447Z 26003KT 22/11 A3021 RMK A01 T02200113  RH  051%=      5-min Rain = 0
KCR1 111448Z 27002KT 22/11 A3021 RMK A01 T02200113  RH  051%=      5-min Rain = 0
KCR1 111449Z 23002KT 22/11 A3021 RMK A01 T02200113  RH  051%=      5-min Rain = 0
KCR1 111450Z 20002KT 22/11 A3021 RMK A01 T02200113  RH  051%=      5-min Rain = 0
KCR1 111451Z 20001KT 22/11 A3021 RMK A01 T02200114  RH  051%=      5-min Rain = 0
KCR1 111452Z 20001KT 22/12 A3021 RMK A01 T02210116  RH  051%=      5-min Rain = 0
KCR1 111453Z 24002KT 22/12 A3021 RMK A01 T02220115  RH  051%=      5-min Rain = 0
KCR1 111454Z 24002KT 22/12 A3021 RMK A01 T02230115  RH  050%=      5-min Rain = 0
KCR1 111455Z 21004KT 22/12 A3021 RMK A01 T02240116  RH  050%=      5-min Rain = 0
KCR1 111456Z 22004KT 23/12 A3021 RMK A01 T02250116  RH  050%=      5-min Rain = 0
KCR1 111457Z 22005KT 23/12 A3021 RMK A01 T02250115  RH  050%=      5-min Rain = 0
KCR1 111458Z 20004KT 23/11 A3021 RMK A01 T02260114  RH  049%=      5-min Rain = 0
KCR1 111459Z 20004KT 23/11 A3021 RMK A01 T02260114  RH  049%=      5-min Rain = 0
KCR1 111500Z 21003KT 23/12 A3021 RMK A01 T02260115  RH  049%=      5-min Rain = 0
KCR1 111501Z 20004KT 23/12 A3021 RMK A01 T02260115  RH  049%=      5-min Rain = 0
KCR1 111502Z 20003KT 23/12 A3021 RMK A01 T02270116  RH  049%=      5-min Rain = 0
KCR1 111503Z 20003KT 23/12 A3021 RMK A01 T02290119  RH  050%=      5-min Rain = 0
KCR1 111504Z 20003KT 23/12 A3021 RMK A01 T02320119  RH  049%=      5-min Rain = 0
KCR1 111505Z 20003KT 23/12 A3021 RMK A01 T02330118  RH  048%=      5-min Rain = 0
KCR1 111506Z 21004KT 23/12 A3021 RMK A01 T02330118  RH  048%=      5-min Rain = 0
KCR1 111507Z 22004KT 23/12 A3021 RMK A01 T02330119  RH  049%=      5-min Rain = 0
KCR1 111508Z 24004KT 23/12 A3021 RMK A01 T02340118  RH  048%=      5-min Rain = 0
KCR1 111509Z 25003KT 23/12 A3021 RMK A01 T02330117  RH  048%=      5-min Rain = 0
KCR1 111510Z 29001KT 23/12 A3021 RMK A01 T02320119  RH  049%=      5-min Rain = 0
KCR1 111511Z 19002KT 23/12 A3021 RMK A01 T02340120  RH  049%=      5-min Rain = 0
KCR1 111512Z 21004KT 24/12 A3021 RMK A01 T02360120  RH  048%=      5-min Rain = 0
KCR1 111513Z 20005KT 24/12 A3021 RMK A01 T02370120  RH  048%=      5-min Rain = 0
KCR1 111514Z 20004KT 24/12 A3021 RMK A01 T02370121  RH  048%=      5-min Rain = 0
KCR1 111515Z 21005KT 24/12 A3021 RMK A01 T02390120  RH  047%=      5-min Rain = 0
KCR1 111516Z 20004KT 24/12 A302 RMK A01 T02390120  RH  047%=      5-min Rain = 0
KCR1 111517Z 20004KT 24/12 A302 RMK A01 T02380120  RH  048%=      5-min Rain = 0
KCR1 111518Z 18004KT 24/12 A302 RMK A01 T02380119  RH  047%=      5-min Rain = 0
KCR1 111519Z 19003KT 24/12 A302 RMK A01 T02370119  RH  048%=      5-min Rain = 0
KCR1 111520Z 19004KT 24/12 A302 RMK A01 T02370120  RH  048%=      5-min Rain = 0
KCR1 111521Z 19004KT 24/12 A302 RMK A01 T02380120  RH  047%=      5-min Rain = 0
KCR1 111522Z 21003KT 24/12 A302 RMK A01 T02380120  RH  048%=      5-min Rain = 0
KCR1 111523Z 23003KT 24/12 A3021 RMK A01 T02390121  RH  048%=      5-min Rain = 0
KCR1 111524Z 24005KT 24/12 A302 RMK A01 T02410118  RH  046%=      5-min Rain = 0
KCR1 111525Z 25005KT 24/12 A302 RMK A01 T02410119  RH  046%=      5-min Rain = 0
KCR1 111526Z 26004KT 24/12 A3021 RMK A01 T02410118  RH  046%=      5-min Rain = 0
KCR1 111527Z 22004KT 24/12 A3021 RMK A01 T02420119  RH  046%=      5-min Rain = 0
KCR1 111528Z 20002KT 24/12 A3021 RMK A01 T02420119  RH  046%=      5-min Rain = 0
KCR1 111529Z 20004KT 24/12 A3021 RMK A01 T02410119  RH  046%=      5-min Rain = 0
KCR1 111530Z 22004KT 24/12 A3021 RMK A01 T02430121  RH  046%=      5-min Rain = 0
KCR1 111531Z 22002KT 25/12 A3021 RMK A01 T02450118  RH  045%=      5-min Rain = 0
KCR1 111532Z 21002KT 25/12 A3021 RMK A01 T02450117  RH  045%=      5-min Rain = 0
KCR1 111533Z 21004KT 24/12 A3021 RMK A01 T02440117  RH  045%=      5-min Rain = 0
KCR1 111534Z 18005KT 24/12 A302 RMK A01 T02440118  RH  045%=      5-min Rain = 0
KCR1 111535Z 18005KT 24/12 A3021 RMK A01 T02430118  RH  046%=      5-min Rain = 0
KCR1 111536Z 18004KT 24/12 A302 RMK A01 T02430116  RH  045%=      5-min Rain = 0
KCR1 111537Z 17003KT 24/12 A302 RMK A01 T02430117  RH  045%=      5-min Rain = 0
KCR1 111538Z 17002KT 24/12 A302 RMK A01 T02430118  RH  046%=      5-min Rain = 0
KCR1 111539Z 19004KT 25/12 A302 RMK A01 T02450119  RH  045%=      5-min Rain = 0
KCR1 111540Z 22003KT 25/12 A302 RMK A01 T02470120  RH  045%=      5-min Rain = 0
KCR1 111541Z 18003KT 25/12 A302 RMK A01 T02480119  RH  045%=      5-min Rain = 0
KCR1 111542Z 17005KT 25/12 A302 RMK A01 T02490120  RH  045%=      5-min Rain = 0
KCR1 111543Z 16003KT 25/12 A302 RMK A01 T02500120  RH  044%=      5-min Rain = 0
KCR1 111544Z 15003KT 25/12 A302 RMK A01 T02500118  RH  044%=      5-min Rain = 0
KCR1 111545Z 18004KT 25/12 A302 RMK A01 T02490119  RH  044%=      5-min Rain = 0
KCR1 111546Z 19004KT 25/12 A302 RMK A01 T02480118  RH  044%=      5-min Rain = 0
KCR1 111547Z 22003KT 25/12 A3021 RMK A01 T02480117  RH  044%=      5-min Rain = 0
KCR1 111548Z 22003KT 25/12 A3021 RMK A01 T02460117  RH  044%=      5-min Rain = 0
KCR1 111549Z 20001KT 25/12 A3021 RMK A01 T02470117  RH  044%=      5-min Rain = 0
KCR1 111550Z 21001KT 25/12 A3021 RMK A01 T02490118  RH  044%=      5-min Rain = 0
KCR1 111551Z 19004KT 25/12 A3021 RMK A01 T02510117  RH  043%=      5-min Rain = 0
KCR1 111552Z 20004KT 25/12 A3021 RMK A01 T02520115  RH  042%=      5-min Rain = 0
KCR1 111553Z 21005KT 25/12 A3021 RMK A01 T02520115  RH  042%=      5-min Rain = 0
KCR1 111554Z 22004KT 25/12 A3021 RMK A01 T02520116  RH  042%=      5-min Rain = 0
KCR1 111555Z 24003KT 25/11 A3021 RMK A01 T02510114  RH  042%=      5-min Rain = 0
KCR1 111556Z 27002KT 25/12 A3021 RMK A01 T02500115  RH  043%=      5-min Rain = 0
KCR1 111557Z 26002KT 25/12 A3021 RMK A01 T02500115  RH  043%=      5-min Rain = 0
KCR1 111558Z 22002KT 25/12 A3021 RMK A01 T02510116  RH  043%=      5-min Rain = 0
KCR1 111559Z 20004KT 25/12 A3021 RMK A01 T02520119  RH  043%=      5-min Rain = 0
KCR1 111600Z 20004KT 25/12 A3021 RMK A01 T02540117  RH  043%=      5-min Rain = 0
KCR1 111601Z 19005KT 26/12 A3021 RMK A01 T02550116  RH  042%=      5-min Rain = 0
KCR1 111602Z 17004KT 26/12 A3021 RMK A01 T02550115  RH  042%=      5-min Rain = 0
KCR1 111603Z 15002KT 25/11 A3021 RMK A01 T02530112  RH  041%=      5-min Rain = 0
KCR1 111604Z 16003KT 25/12 A302 RMK A01 T02520116  RH  042%=      5-min Rain = 0
KCR1 111605Z 16003KT 26/12 A302 RMK A01 T02550117  RH  042%=      5-min Rain = 0
KCR1 111606Z 17003KT 26/12 A302 RMK A01 T02570116  RH  041%=      5-min Rain = 0
KCR1 111607Z 19003KT 26/11 A302 RMK A01 T02570113  RH  041%=      5-min Rain = 0
KCR1 111608Z 17003KT 26/12 A302 RMK A01 T02570115  RH  041%=      5-min Rain = 0
KCR1 111609Z 15002KT 26/12 A302 RMK A01 T02580117  RH  041%=      5-min Rain = 0
KCR1 111610Z 15002KT 26/12 A302 RMK A01 T02580118  RH  042%=      5-min Rain = 0
KCR1 111611Z 24002KT 26/12 A302 RMK A01 T02590116  RH  041%=      5-min Rain = 0
KCR1 111612Z 23003KT 26/12 A302 RMK A01 T02590116  RH  041%=      5-min Rain = 0
KCR1 111613Z 24002KT 26/12 A302 RMK A01 T02590116  RH  041%=      5-min Rain = 0
KCR1 111614Z 33000KT 26/12 A302 RMK A01 T02590115  RH  041%=      5-min Rain = 0
KCR1 111615Z 10002KT 26/12 A302 RMK A01 T02600116  RH  041%=      5-min Rain = 0
KCR1 111616Z 14003KT 26/12 A302 RMK A01 T02610118  RH  041%=      5-min Rain = 0
KCR1 111617Z 21004KT 26/12 A302 RMK A01 T02610120  RH  042%=      5-min Rain = 0
KCR1 111618Z 23005KT 26/12 A302 RMK A01 T02610118  RH  041%=      5-min Rain = 0
KCR1 111619Z 23002KT 26/12 A302 RMK A01 T02600116  RH  041%=      5-min Rain = 0
KCR1 111620Z 24001KT 26/12 A302 RMK A01 T02590115  RH  041%=      5-min Rain = 0
KCR1 111621Z 23004KT 26/12 A302 RMK A01 T02590116  RH  041%=      5-min Rain = 0
KCR1 111622Z 23003KT 26/11 A302 RMK A01 T02580114  RH  041%=      5-min Rain = 0
KCR1 111623Z 24003KT 26/12 A302 RMK A01 T02570116  RH  041%=      5-min Rain = 0
KCR1 111624Z 22002KT 26/12 A302 RMK A01 T02570115  RH  041%=      5-min Rain = 0
KCR1 111625Z 27002KT 26/12 A302 RMK A01 T02580115  RH  041%=      5-min Rain = 0
KCR1 111626Z 31002KT 26/11 A302 RMK A01 T02590114  RH  040%=      5-min Rain = 0
KCR1 111627Z 35002KT 26/11 A3019 RMK A01 T02580114  RH  041%=      5-min Rain = 0
KCR1 111628Z 30002KT 26/12 A3019 RMK A01 T02570117  RH  041%=      5-min Rain = 0
KCR1 111629Z 24002KT 26/12 A3019 RMK A01 T02590115  RH  041%=      5-min Rain = 0
KCR1 111630Z 21002KT 26/12 A3019 RMK A01 T02600116  RH  041%=      5-min Rain = 0
KCR1 111631Z 22002KT 26/12 A3019 RMK A01 T02600115  RH  040%=      5-min Rain = 0
KCR1 111632Z 20003KT 26/12 A3019 RMK A01 T02600116  RH  041%=      5-min Rain = 0
KCR1 111633Z 20002KT 26/12 A3019 RMK A01 T02630122  RH  042%=      5-min Rain = 0
KCR1 111634Z 20004KT 27/12 A3019 RMK A01 T02680120  RH  040%=      5-min Rain = 0
KCR1 111635Z 20004KT 27/12 A3019 RMK A01 T02680118  RH  039%=      5-min Rain = 0
KCR1 111636Z 20004KT 27/12 A3019 RMK A01 T02670118  RH  040%=      5-min Rain = 0
KCR1 111637Z 20004KT 27/12 A3019 RMK A01 T02660118  RH  040%=      5-min Rain = 0
KCR1 111638Z 19002KT 27/12 A3019 RMK A01 T02650116  RH  039%=      5-min Rain = 0
KCR1 111639Z 20002KT 26/12 A3019 RMK A01 T02640115  RH  039%=      5-min Rain = 0
KCR1 111640Z 19001KT 26/12 A3019 RMK A01 T02630115  RH  039%=      5-min Rain = 0
KCR1 111641Z 17000KT 26/12 A3019 RMK A01 T02630115  RH  040%=      5-min Rain = 0
KCR1 111642Z 10001KT 26/12 A3019 RMK A01 T02620116  RH  040%=      5-min Rain = 0
KCR1 111643Z 12002KT 26/12 A3019 RMK A01 T02630118  RH  040%=      5-min Rain = 0
KCR1 111644Z 12002KT 27/12 A3019 RMK A01 T02650117  RH  040%=      5-min Rain = 0
KCR1 111645Z 14002KT 27/12 A3019 RMK A01 T02660118  RH  040%=      5-min Rain = 0
KCR1 111646Z 16004KT 27/12 A3019 RMK A01 T02670118  RH  040%=      5-min Rain = 0
KCR1 111647Z 15001KT 27/12 A3019 RMK A01 T02670117  RH  039%=      5-min Rain = 0
KCR1 111648Z 16004KT 27/12 A3019 RMK A01 T02660116  RH  039%=      5-min Rain = 0
KCR1 111649Z 17003KT 27/12 A3019 RMK A01 T02670117  RH  039%=      5-min Rain = 0
KCR1 111650Z 13002KT 27/12 A3019 RMK A01 T02660117  RH  039%=      5-min Rain = 0
KCR1 111651Z 12003KT 27/12 A3019 RMK A01 T02660118  RH  040%=      5-min Rain = 0
KCR1 111652Z 17001KT 27/12 A3019 RMK A01 T02680117  RH  039%=      5-min Rain = 0
KCR1 111653Z 22002KT 27/12 A3019 RMK A01 T02700120  RH  039%=      5-min Rain = 0
KCR1 111654Z 23001KT 27/12 A3018 RMK A01 T02720117  RH  038%=      5-min Rain = 0
KCR1 111655Z 21002KT 27/12 A3018 RMK A01 T02720117  RH  038%=      5-min Rain = 0
KCR1 111656Z 14001KT 27/12 A3018 RMK A01 T02730119  RH  038%=      5-min Rain = 0
KCR1 111657Z 14002KT 27/12 A3018 RMK A01 T02740119  RH  038%=      5-min Rain = 0
KCR1 111658Z 16003KT 27/12 A3018 RMK A01 T02740120  RH  038%=      5-min Rain = 0
KCR1 111659Z 16002KT 27/12 A3018 RMK A01 T02720115  RH  038%=      5-min Rain = 0
KCR1 111700Z 24001KT 27/12 A3018 RMK A01 T02690117  RH  039%=      5-min Rain = 0
KCR1 111701Z 26002KT 27/12 A3018 RMK A01 T02700116  RH  038%=      5-min Rain = 0
KCR1 111702Z 24001KT 27/11 A3018 RMK A01 T02710112  RH  037%=      5-min Rain = 0
KCR1 111703Z 28003KT 27/12 A3018 RMK A01 T02710117  RH  038%=      5-min Rain = 0
KCR1 111704Z 28004KT 27/12 A3018 RMK A01 T02730116  RH  037%=      5-min Rain = 0
KCR1 111705Z 26003KT 27/11 A3018 RMK A01 T02720113  RH  037%=      5-min Rain = 0
KCR1 111706Z 25002KT 27/12 A3018 RMK A01 T02690115  RH  038%=      5-min Rain = 0
KCR1 111707Z 27003KT 27/12 A3018 RMK A01 T02710115  RH  038%=      5-min Rain = 0
KCR1 111708Z 00001KT 27/11 A3018 RMK A01 T02710114  RH  038%=      5-min Rain = 0
KCR1 111709Z 28001KT 27/12 A3018 RMK A01 T02710116  RH  038%=      5-min Rain = 0
KCR1 111710Z 30003KT 27/12 A3018 RMK A01 T02740117  RH  038%=      5-min Rain = 0
KCR1 111711Z 29002KT 28/12 A3018 RMK A01 T02760116  RH  037%=      5-min Rain = 0
KCR1 111712Z 28002KT 28/12 A3018 RMK A01 T02750115  RH  037%=      5-min Rain = 0
KCR1 111713Z 23002KT 27/12 A3018 RMK A01 T02740117  RH  038%=      5-min Rain = 0
KCR1 111714Z 23003KT 28/12 A3018 RMK A01 T02750116  RH  037%=      5-min Rain = 0
KCR1 111715Z 26001KT 28/12 A3018 RMK A01 T02760120  RH  038%=      5-min Rain = 0
KCR1 111716Z 30003KT 28/11 A3018 RMK A01 T02780113  RH  036%=      5-min Rain = 0
KCR1 111717Z 29003KT 28/11 A3017 RMK A01 T02770113  RH  036%=      5-min Rain = 0
KCR1 111718Z 30002KT 28/11 A3017 RMK A01 T02750112  RH  036%=      5-min Rain = 0
KCR1 111719Z 30001KT 27/11 A3017 RMK A01 T02730114  RH  037%=      5-min Rain = 0
KCR1 111720Z 31002KT 27/11 A3017 RMK A01 T02730113  RH  037%=      5-min Rain = 0
KCR1 111721Z 33001KT 27/11 A3017 RMK A01 T02720113  RH  037%=      5-min Rain = 0
KCR1 111722Z 14001KT 27/11 A3017 RMK A01 T02710113  RH  037%=      5-min Rain = 0
KCR1 111723Z 16001KT 27/12 A3017 RMK A01 T02720118  RH  038%=      5-min Rain = 0
KCR1 111724Z 17004KT 28/12 A3017 RMK A01 T02750116  RH  037%=      5-min Rain = 0
KCR1 111725Z 16003KT 28/12 A3017 RMK A01 T02760120  RH  038%=      5-min Rain = 0
KCR1 111726Z 17003KT 28/12 A3017 RMK A01 T02800122  RH  038%=      5-min Rain = 0
KCR1 111727Z 17003KT 28/12 A3017 RMK A01 T02810118  RH  036%=      5-min Rain = 0
KCR1 111728Z 17003KT 28/12 A3017 RMK A01 T02790116  RH  036%=      5-min Rain = 0
KCR1 111729Z 16005KT 28/12 A3017 RMK A01 T02790119  RH  037%=      5-min Rain = 0
KCR1 111730Z 17004KT 28/12 A3017 RMK A01 T02780116  RH  037%=      5-min Rain = 0
KCR1 111731Z 14004KT 28/12 A3017 RMK A01 T02760118  RH  038%=      5-min Rain = 0
KCR1 111732Z 12003KT 28/12 A3017 RMK A01 T02750115  RH  037%=      5-min Rain = 0
KCR1 111733Z 13003KT 27/12 A3017 RMK A01 T02740116  RH  037%=      5-min Rain = 0
KCR1 111734Z 12004KT 28/12 A3017 RMK A01 T02750119  RH  038%=      5-min Rain = 0
KCR1 111735Z 10005KT 28/12 A3017 RMK A01 T02770120  RH  038%=      5-min Rain = 0
KCR1 111736Z 10004KT 28/12 A3017 RMK A01 T02790120  RH  037%=      5-min Rain = 0
KCR1 111737Z 17003KT 28/12 A3017 RMK A01 T02800119  RH  037%=      5-min Rain = 0
KCR1 111738Z 18003KT 28/12 A3017 RMK A01 T02800115  RH  036%=      5-min Rain = 0
KCR1 111739Z 17002KT 28/11 A3017 RMK A01 T02770113  RH  036%=      5-min Rain = 0
KCR1 111740Z 15006KT 28/12 A3017 RMK A01 T02770118  RH  037%=      5-min Rain = 0
KCR1 111741Z 18004KT 28/12 A3017 RMK A01 T02770117  RH  037%=      5-min Rain = 0
KCR1 111742Z 22002KT 28/11 A3017 RMK A01 T02760114  RH  037%=      5-min Rain = 0
KCR1 111743Z 12002KT 28/11 A3017 RMK A01 T02750114  RH  037%=      5-min Rain = 0
KCR1 111744Z 11004KT 28/12 A3017 RMK A01 T02750119  RH  038%=      5-min Rain = 0
KCR1 111745Z 09003KT 28/12 A3017 RMK A01 T02760116  RH  037%=      5-min Rain = 0
KCR1 111746Z 03001KT 27/11 A3016 RMK A01 T02740113  RH  037%=      5-min Rain = 0
KCR1 111747Z 11003KT 27/12 A3016 RMK A01 T02730118  RH  038%=      5-min Rain = 0
KCR1 111748Z 13003KT 28/12 A3016 RMK A01 T02760120  RH  038%=      5-min Rain = 0
KCR1 111749Z 11003KT 28/12 A3016 RMK A01 T02780118  RH  037%=      5-min Rain = 0
KCR1 111750Z 12004KT 28/12 A3016 RMK A01 T02790120  RH  037%=      5-min Rain = 0
KCR1 111751Z 16006KT 28/12 A3016 RMK A01 T02800118  RH  037%=      5-min Rain = 0
KCR1 111752Z 16004KT 28/12 A3016 RMK A01 T02800117  RH  036%=      5-min Rain = 0
KCR1 111753Z 16005KT 28/12 A3016 RMK A01 T02790118  RH  037%=      5-min Rain = 0
KCR1 111754Z 17004KT 28/12 A3016 RMK A01 T02790115  RH  036%=      5-min Rain = 0
KCR1 111755Z 19005KT 28/12 A3016 RMK A01 T02780117  RH  037%=      5-min Rain = 0
KCR1 111756Z 17005KT 28/12 A3016 RMK A01 T02800116  RH  036%=      5-min Rain = 0
KCR1 111757Z 17004KT 28/12 A3016 RMK A01 T02800119  RH  037%=      5-min Rain = 0
KCR1 111758Z 18004KT 28/12 A3016 RMK A01 T02800116  RH  036%=      5-min Rain = 0
KCR1 111759Z 19004KT 28/12 A3016 RMK A01 T02790115  RH  036%=      5-min Rain = 0
KCR1 111800Z 17003KT 28/12 A3016 RMK A01 T02780115  RH  036%=      5-min Rain = 0
KCR1 111801Z 21001KT 28/11 A3016 RMK A01 T02780112  RH  036%=      5-min Rain = 0
KCR1 111802Z 17001KT 28/11 A3016 RMK A01 T02770113  RH  036%=      5-min Rain = 0
KCR1 111803Z 13005KT 28/12 A3016 RMK A01 T02780119  RH  037%=      5-min Rain = 0
KCR1 111804Z 13005KT 28/12 A3016 RMK A01 T02810117  RH  036%=      5-min Rain = 0
KCR1 111805Z 14005KT 28/12 A3016 RMK A01 T02810119  RH  037%=      5-min Rain = 0
KCR1 111806Z 15005KT 28/12 A3016 RMK A01 T02810117  RH  036%=      5-min Rain = 0
KCR1 111807Z 17004KT 28/12 A3016 RMK A01 T02800117  RH  036%=      5-min Rain = 0
KCR1 111808Z 16004KT 28/12 A3016 RMK A01 T02800117  RH  036%=      5-min Rain = 0
KCR1 111809Z 15003KT 28/12 A3016 RMK A01 T02800115  RH  036%=      5-min Rain = 0
KCR1 111810Z 15005KT 28/12 A3016 RMK A01 T02800119  RH  037%=      5-min Rain = 0
KCR1 111811Z 15004KT 28/12 A3016 RMK A01 T02810117  RH  036%=      5-min Rain = 0
KCR1 111812Z 12002KT 28/12 A3016 RMK A01 T02800115  RH  036%=      5-min Rain = 0
KCR1 111813Z 15004KT 28/12 A3015 RMK A01 T02810119  RH  037%=      5-min Rain = 0
KCR1 111814Z 16004KT 28/12 A3015 RMK A01 T02820117  RH  036%=      5-min Rain = 0
KCR1 111815Z 13003KT 28/12 A3015 RMK A01 T02830117  RH  036%=      5-min Rain = 0
KCR1 111816Z 09005KT 29/12 A3015 RMK A01 T02850123  RH  037%=      5-min Rain = 0
KCR1 111817Z 08005KT 29/12 A3015 RMK A01 T02870118  RH  035%=      5-min Rain = 0
KCR1 111818Z 12004KT 29/12 A3015 RMK A01 T02870120  RH  036%=      5-min Rain = 0
KCR1 111819Z 07004KT 29/12 A3015 RMK A01 T02860120  RH  036%=      5-min Rain = 0
KCR1 111820Z 08004KT 29/12 A3015 RMK A01 T02860119  RH  035%=      5-min Rain = 0
KCR1 111821Z 05004KT 29/12 A3015 RMK A01 T02870120  RH  036%=      5-min Rain = 0
KCR1 111822Z 06002KT 29/12 A3015 RMK A01 T02870118  RH  035%=      5-min Rain = 0
KCR1 111823Z 01000KT 29/12 A3015 RMK A01 T02870116  RH  035%=      5-min Rain = 0
KCR1 111824Z 07003KT 29/12 A3015 RMK A01 T02860117  RH  035%=      5-min Rain = 0
KCR1 111825Z 06006KT 29/12 A3015 RMK A01 T02880121  RH  036%=      5-min Rain = 0
KCR1 111826Z 08005KT 29/12 A3015 RMK A01 T02890118  RH  035%=      5-min Rain = 0
KCR1 111827Z 08005KT 29/12 A3015 RMK A01 T02870117  RH  035%=      5-min Rain = 0
KCR1 111828Z 05004KT 29/12 A3015 RMK A01 T02850116  RH  035%=      5-min Rain = 0
KCR1 111829Z 09001KT 28/11 A3015 RMK A01 T02840113  RH  035%=      5-min Rain = 0
KCR1 111830Z 09002KT 28/12 A3015 RMK A01 T02830115  RH  035%=      5-min Rain = 0
KCR1 111831Z 09006KT 29/12 A3015 RMK A01 T02850119  RH  036%=      5-min Rain = 0
KCR1 111832Z 11004KT 29/12 A3015 RMK A01 T02850117  RH  035%=      5-min Rain = 0
KCR1 111833Z 12003KT 29/12 A3014 RMK A01 T02850118  RH  035%=      5-min Rain = 0
KCR1 111834Z 10002KT 29/12 A3014 RMK A01 T02860116  RH  035%=      5-min Rain = 0
KCR1 111835Z 13002KT 29/12 A3014 RMK A01 T02860122  RH  036%=      5-min Rain = 0
KCR1 111836Z 08004KT 29/12 A3014 RMK A01 T02890119  RH  035%=      5-min Rain = 0
KCR1 111837Z 07005KT 29/12 A3014 RMK A01 T02900119  RH  035%=      5-min Rain = 0
KCR1 111838Z 08005KT 29/12 A3014 RMK A01 T02900118  RH  034%=      5-min Rain = 0
KCR1 111839Z 08003KT 29/11 A3014 RMK A01 T02880114  RH  034%=      5-min Rain = 0
KCR1 111840Z 06001KT 29/12 A3014 RMK A01 T02860118  RH  035%=      5-min Rain = 0
KCR1 111841Z 18001KT 29/12 A3014 RMK A01 T02870116  RH  035%=      5-min Rain = 0
KCR1 111842Z 12001KT 29/11 A3014 RMK A01 T02890114  RH  034%=      5-min Rain = 0
KCR1 111843Z 02003KT 29/12 A3014 RMK A01 T02920116  RH  034%=      5-min Rain = 0
KCR1 111844Z 01006KT 29/12 A3014 RMK A01 T02930117  RH  034%=      5-min Rain = 0
KCR1 111845Z 03005KT 29/12 A3014 RMK A01 T02930118  RH  034%=      5-min Rain = 0
KCR1 111846Z 05005KT 29/12 A3014 RMK A01 T02920118  RH  034%=      5-min Rain = 0
KCR1 111847Z 03003KT 29/12 A3014 RMK A01 T02920121  RH  035%=      5-min Rain = 0
KCR1 111848Z 05003KT 29/12 A3014 RMK A01 T02930118  RH  034%=      5-min Rain = 0
KCR1 111849Z 05001KT 29/12 A3013 RMK A01 T02930117  RH  034%=      5-min Rain = 0
KCR1 111850Z 36002G7KT 29/12 A3013 RMK A01 T02930117  RH  034%=      5-min Rain = 0
KCR1 111851Z 35006KT 29/12 A3013 RMK A01 T02940116  RH  033%=      5-min Rain = 0
KCR1 111852Z 34007KT 29/12 A3013 RMK A01 T02940115  RH  033%=      5-min Rain = 0
KCR1 111853Z 34006KT 29/12 A3013 RMK A01 T02920116  RH  034%=      5-min Rain = 0
KCR1 111854Z 35007KT 29/12 A3013 RMK A01 T02910116  RH  034%=      5-min Rain = 0
KCR1 111855Z 32005KT 29/12 A3013 RMK A01 T02920115  RH  033%=      5-min Rain = 0
KCR1 111856Z 36005KT 29/11 A3013 RMK A01 T02900114  RH  034%=      5-min Rain = 0
KCR1 111857Z 35004KT 29/11 A3013 RMK A01 T02880114  RH  034%=      5-min Rain = 0
KCR1 111858Z 01004KT 29/12 A3013 RMK A01 T02880115  RH  034%=      5-min Rain = 0
KCR1 111859Z 04003KT 29/12 A3013 RMK A01 T02890115  RH  034%=      5-min Rain = 0
KCR1 111900Z 07003KT 29/12 A3013 RMK A01 T02890115  RH  034%=      5-min Rain = 0
KCR1 111901Z 13002KT 29/12 A3013 RMK A01 T02880115  RH  034%=      5-min Rain = 0
KCR1 111902Z 18002KT 29/12 A3013 RMK A01 T02880115  RH  034%=      5-min Rain = 0
KCR1 111903Z 15002KT 29/12 A3013 RMK A01 T02880116  RH  034%=      5-min Rain = 0
KCR1 111904Z 09001KT 29/12 A3013 RMK A01 T02910118  RH  034%=      5-min Rain = 0
KCR1 111905Z 35001KT 29/12 A3013 RMK A01 T02930117  RH  034%=      5-min Rain = 0
KCR1 111906Z 19001KT 30/12 A3013 RMK A01 T02960115  RH  033%=      5-min Rain = 0
KCR1 111907Z 21001KT 30/11 A3012 RMK A01 T02980114  RH  032%=      5-min Rain = 0
KCR1 111908Z 18004KT 30/12 A3012 RMK A01 T02980117  RH  033%=      5-min Rain = 0
KCR1 111909Z 16006KT 30/12 A3012 RMK A01 T02980116  RH  033%=      5-min Rain = 0
KCR1 111910Z 15005KT 29/12 A3012 RMK A01 T02940116  RH  033%=      5-min Rain = 0
KCR1 111911Z 15005KT 29/12 A3012 RMK A01 T02930117  RH  034%=      5-min Rain = 0
KCR1 111912Z 13005KT 29/12 A3012 RMK A01 T02920117  RH  034%=      5-min Rain = 0
KCR1 111913Z 14004KT 29/12 A3012 RMK A01 T02910116  RH  034%=      5-min Rain = 0
KCR1 111914Z 12004KT 29/12 A3012 RMK A01 T02910115  RH  034%=      5-min Rain = 0
KCR1 111915Z 08003KT 29/12 A3012 RMK A01 T02900120  RH  035%=      5-min Rain = 0
KCR1 111916Z 07005KT 29/12 A3012 RMK A01 T02920120  RH  034%=      5-min Rain = 0
KCR1 111917Z 07002KT 29/12 A3012 RMK A01 T02930117  RH  034%=      5-min Rain = 0
KCR1 111918Z 11003KT 29/12 A3012 RMK A01 T02920116  RH  034%=      5-min Rain = 0
KCR1 111919Z 15006KT 29/12 A3012 RMK A01 T02910117  RH  034%=      5-min Rain = 0
KCR1 111920Z 18004KT 29/11 A3012 RMK A01 T02900114  RH  033%=      5-min Rain = 0
KCR1 111921Z 18003KT 29/11 A3012 RMK A01 T02890114  RH  034%=      5-min Rain = 0
KCR1 111922Z 16003KT 29/11 A3012 RMK A01 T02890113  RH  034%=      5-min Rain = 0
KCR1 111923Z 13003KT 29/11 A3012 RMK A01 T02890113  RH  034%=      5-min Rain = 0
KCR1 111924Z 17002KT 29/11 A3012 RMK A01 T02880113  RH  034%=      5-min Rain = 0
KCR1 111925Z 18004KT 29/11 A3012 RMK A01 T02870113  RH  034%=      5-min Rain = 0
KCR1 111926Z 17004KT 29/12 A3011 RMK A01 T02860116  RH  035%=      5-min Rain = 0
KCR1 111927Z 02005KT 29/12 A3011 RMK A01 T02880122  RH  036%=      5-min Rain = 0
KCR1 111928Z 01004KT 29/12 A3012 RMK A01 T02910117  RH  034%=      5-min Rain = 0
KCR1 111929Z 34002KT 29/12 A3011 RMK A01 T02900115  RH  034%=      5-min Rain = 0
KCR1 111930Z 35002KT 29/12 A3011 RMK A01 T02890116  RH  034%=      5-min Rain = 0
KCR1 111931Z 21000KT 29/12 A3011 RMK A01 T02880115  RH  034%=      5-min Rain = 0
KCR1 111932Z 21000KT 29/11 A3011 RMK A01 T02870114  RH  034%=      5-min Rain = 0
KCR1 111933Z 14001KT 29/12 A3011 RMK A01 T02890119  RH  035%=      5-min Rain = 0
KCR1 111934Z 04001KT 29/12 A3011 RMK A01 T02920116  RH  034%=      5-min Rain = 0
KCR1 111935Z 04003KT 29/12 A3011 RMK A01 T02930116  RH  033%=      5-min Rain = 0
KCR1 111936Z 03003KT 29/12 A3011 RMK A01 T02930117  RH  034%=      5-min Rain = 0
KCR1 111937Z 04003KT 29/12 A3011 RMK A01 T02920116  RH  034%=      5-min Rain = 0
KCR1 111938Z 05003KT 29/12 A3011 RMK A01 T02910116  RH  034%=      5-min Rain = 0
KCR1 111939Z 02004KT 29/12 A3011 RMK A01 T02910118  RH  034%=      5-min Rain = 0
KCR1 111940Z 01003KT 29/12 A3011 RMK A01 T02930117  RH  034%=      5-min Rain = 0
KCR1 111941Z 01003KT 29/12 A3011 RMK A01 T02940118  RH  034%=      5-min Rain = 0
KCR1 111942Z 36002KT 30/11 A3011 RMK A01 T02950114  RH  033%=      5-min Rain = 0
KCR1 111943Z 03004KT 29/12 A3011 RMK A01 T02940116  RH  033%=      5-min Rain = 0
KCR1 111944Z 04006KT 30/12 A301 RMK A01 T02970120  RH  034%=      5-min Rain = 0
KCR1 111945Z 04004KT 30/12 A3011 RMK A01 T02990119  RH  033%=      5-min Rain = 0
KCR1 111946Z 02004KT 30/12 A301 RMK A01 T03000119  RH  033%=      5-min Rain = 0
KCR1 111947Z 01003KT 30/12 A301 RMK A01 T03000116  RH  032%=      5-min Rain = 0
KCR1 111948Z 36002KT 30/11 A301 RMK A01 T02980114  RH  032%=      5-min Rain = 0
KCR1 111949Z 07001KT 30/12 A301 RMK A01 T02960115  RH  033%=      5-min Rain = 0
KCR1 111950Z 08006KT 30/12 A301 RMK A01 T02970121  RH  034%=      5-min Rain = 0
KCR1 111951Z 08007KT 30/12 A301 RMK A01 T03010120  RH  033%=      5-min Rain = 0
KCR1 111952Z 07007KT 30/12 A301 RMK A01 T03020119  RH  032%=      5-min Rain = 0
KCR1 111953Z 09003KT 30/12 A301 RMK A01 T03000117  RH  032%=      5-min Rain = 0
KCR1 111954Z 14001KT 30/12 A301 RMK A01 T02980116  RH  032%=      5-min Rain = 0
KCR1 111955Z 04004KT 30/12 A301 RMK A01 T02980118  RH  033%=      5-min Rain = 0
KCR1 111956Z 04003KT 30/12 A301 RMK A01 T02980117  RH  033%=      5-min Rain = 0
KCR1 111957Z 04000KT 30/12 A301 RMK A01 T02980118  RH  033%=      5-min Rain = 0
KCR1 111958Z 04001KT 30/12 A301 RMK A01 T03000116  RH  032%=      5-min Rain = 0
KCR1 111959Z 02002KT 30/12 A301 RMK A01 T03000117  RH  032%=      5-min Rain = 0
KCR1 112000Z 06002KT 30/12 A301 RMK A01 T03010118  RH  032%=      5-min Rain = 0
KCR1 112001Z 07002G7KT 30/12 A301 RMK A01 T03020116  RH  032%=      5-min Rain = 0
KCR1 112002Z 02005KT 30/12 A3009 RMK A01 T03010118  RH  032%=      5-min Rain = 0
KCR1 112003Z 04004KT 30/12 A3009 RMK A01 T03020118  RH  032%=      5-min Rain = 0
KCR1 112004Z 04005KT 30/12 A3009 RMK A01 T03010119  RH  033%=      5-min Rain = 0
KCR1 112005Z 04004KT 30/12 A3009 RMK A01 T03010119  RH  033%=      5-min Rain = 0
KCR1 112006Z 03007KT 30/12 A3009 RMK A01 T03000118  RH  033%=      5-min Rain = 0
KCR1 112007Z 04005KT 30/12 A3009 RMK A01 T03000116  RH  032%=      5-min Rain = 0
KCR1 112008Z 01004KT 30/12 A3009 RMK A01 T03000116  RH  032%=      5-min Rain = 0
KCR1 112009Z 01002KT 30/11 A3009 RMK A01 T02990114  RH  032%=      5-min Rain = 0
KCR1 112010Z 07003KT 30/12 A3009 RMK A01 T03000117  RH  032%=      5-min Rain = 0
KCR1 112011Z 08004KT 30/12 A3009 RMK A01 T03010117  RH  032%=      5-min Rain = 0
KCR1 112012Z 04009KT 30/12 A3009 RMK A01 T03020119  RH  032%=      5-min Rain = 0
KCR1 112013Z 01008KT 30/12 A3009 RMK A01 T03040118  RH  032%=      5-min Rain = 0
KCR1 112014Z 01006KT 31/12 A3009 RMK A01 T03050116  RH  031%=      5-min Rain = 0
KCR1 112015Z 04006KT 31/12 A3009 RMK A01 T03070118  RH  031%=      5-min Rain = 0
KCR1 112016Z 03005KT 31/12 A3009 RMK A01 T03090117  RH  031%=      5-min Rain = 0
KCR1 112017Z 04005KT 31/12 A3009 RMK A01 T03070118  RH  031%=      5-min Rain = 0
KCR1 112018Z 04007KT 31/12 A3009 RMK A01 T03070117  RH  031%=      5-min Rain = 0
KCR1 112019Z 03004KT 31/12 A3009 RMK A01 T03050115  RH  031%=      5-min Rain = 0
KCR1 112020Z 05002KT 30/12 A3008 RMK A01 T03030115  RH  031%=      5-min Rain = 0
KCR1 112021Z 07003KT 30/12 A3008 RMK A01 T03030118  RH  032%=      5-min Rain = 0
KCR1 112022Z 07003KT 30/12 A3008 RMK A01 T03040117  RH  032%=      5-min Rain = 0
KCR1 112023Z 10006KT 31/12 A3008 RMK A01 T03050117  RH  032%=      5-min Rain = 0
KCR1 112024Z 09006KT 31/12 A3008 RMK A01 T03050119  RH  032%=      5-min Rain = 0
KCR1 112025Z 08007KT 31/12 A3008 RMK A01 T03050118  RH  032%=      5-min Rain = 0
KCR1 112026Z 09005KT 30/12 A3008 RMK A01 T03040115  RH  031%=      5-min Rain = 0
KCR1 112027Z 11003KT 30/12 A3008 RMK A01 T03010115  RH  032%=      5-min Rain = 0
KCR1 112028Z 04005KT 30/12 A3008 RMK A01 T03000118  RH  033%=      5-min Rain = 0
KCR1 112029Z 02006KT 30/12 A3008 RMK A01 T03020118  RH  032%=      5-min Rain = 0
KCR1 112030Z 04005KT 30/12 A3008 RMK A01 T03020119  RH  032%=      5-min Rain = 0
KCR1 112031Z 05004KT 30/12 A3008 RMK A01 T03030121  RH  033%=      5-min Rain = 0
KCR1 112032Z 08003KT 31/13 A3008 RMK A01 T03060125  RH  033%=      5-min Rain = 0
KCR1 112033Z 09005KT 31/12 A3008 RMK A01 T03080120  RH  032%=      5-min Rain = 0
KCR1 112034Z 09008KT 31/12 A3008 RMK A01 T03080120  RH  031%=      5-min Rain = 0
KCR1 112035Z 08008KT 31/12 A3008 RMK A01 T03070120  RH  032%=      5-min Rain = 0
KCR1 112036Z 08007KT 31/12 A3008 RMK A01 T03050121  RH  032%=      5-min Rain = 0
KCR1 112037Z 10007KT 31/12 A3008 RMK A01 T03060119  RH  032%=      5-min Rain = 0
KCR1 112038Z 11006KT 31/12 A3007 RMK A01 T03050119  RH  032%=      5-min Rain = 0
KCR1 112039Z 13005KT 30/12 A3007 RMK A01 T03030119  RH  032%=      5-min Rain = 0
KCR1 112040Z 12005KT 30/12 A3007 RMK A01 T03020119  RH  032%=      5-min Rain = 0
KCR1 112041Z 13006KT 30/12 A3007 RMK A01 T03020117  RH  032%=      5-min Rain = 0
KCR1 112042Z 13006KT 30/12 A3007 RMK A01 T03010119  RH  032%=      5-min Rain = 0
KCR1 112043Z 11004KT 30/12 A3007 RMK A01 T03010117  RH  032%=      5-min Rain = 0
KCR1 112044Z 10003KT 30/12 A3007 RMK A01 T03010116  RH  032%=      5-min Rain = 0
KCR1 112045Z 09003KT 30/12 A3007 RMK A01 T03000117  RH  033%=      5-min Rain = 0
KCR1 112046Z 09003KT 30/12 A3007 RMK A01 T03000118  RH  032%=      5-min Rain = 0
KCR1 112047Z 11005KT 30/12 A3007 RMK A01 T03020120  RH  033%=      5-min Rain = 0
KCR1 112048Z 09005KT 30/12 A3007 RMK A01 T03030119  RH  032%=      5-min Rain = 0
KCR1 112049Z 09005KT 30/12 A3007 RMK A01 T03020117  RH  032%=      5-min Rain = 0
KCR1 112050Z 08006KT 30/12 A3007 RMK A01 T03020119  RH  032%=      5-min Rain = 0
KCR1 112051Z 08006KT 30/12 A3007 RMK A01 T03030118  RH  032%=      5-min Rain = 0
KCR1 112052Z 06005KT 30/12 A3007 RMK A01 T03030119  RH  032%=      5-min Rain = 0
KCR1 112053Z 06007KT 30/12 A3007 RMK A01 T03030119  RH  032%=      5-min Rain = 0
KCR1 112054Z 07003KT 30/12 A3007 RMK A01 T03030117  RH  032%=      5-min Rain = 0
KCR1 112055Z 07003KT 30/12 A3007 RMK A01 T03030117  RH  032%=      5-min Rain = 0
KCR1 112056Z 06002KT 30/12 A3006 RMK A01 T03020118  RH  032%=      5-min Rain = 0
KCR1 112057Z 01005KT 30/12 A3006 RMK A01 T03030117  RH  032%=      5-min Rain = 0
KCR1 112058Z 00004KT 30/12 A3006 RMK A01 T03040115  RH  031%=      5-min Rain = 0
KCR1 112059Z 02006KT 30/12 A3006 RMK A01 T03040118  RH  032%=      5-min Rain = 0
KCR1 112100Z 03005KT 31/12 A3006 RMK A01 T03050119  RH  032%=      5-min Rain = 0
KCR1 112101Z 02004KT 31/12 A3006 RMK A01 T03070123  RH  032%=      5-min Rain = 0
KCR1 112102Z 04002KT 31/12 A3006 RMK A01 T03100120  RH  031%=      5-min Rain = 0
KCR1 112103Z 10003KT 31/12 A3006 RMK A01 T03110119  RH  031%=      5-min Rain = 0
KCR1 112104Z 12005KT 31/12 A3006 RMK A01 T03110120  RH  031%=      5-min Rain = 0
KCR1 112105Z 11006KT 31/12 A3006 RMK A01 T03100120  RH  031%=      5-min Rain = 0
KCR1 112106Z 12006KT 31/12 A3006 RMK A01 T03090119  RH  031%=      5-min Rain = 0
KCR1 112107Z 10005KT 31/12 A3006 RMK A01 T03070119  RH  031%=      5-min Rain = 0
KCR1 112108Z 11005KT 31/12 A3006 RMK A01 T03080121  RH  032%=      5-min Rain = 0
KCR1 112109Z 09005KT 31/12 A3006 RMK A01 T03080118  RH  031%=      5-min Rain = 0
KCR1 112110Z 08004KT 31/12 A3006 RMK A01 T03070117  RH  031%=      5-min Rain = 0
KCR1 112111Z 09003KT 31/12 A3006 RMK A01 T03050115  RH  031%=      5-min Rain = 0
KCR1 112112Z 12003KT 30/12 A3006 RMK A01 T03040120  RH  032%=      5-min Rain = 0
KCR1 112113Z 10005KT 31/12 A3006 RMK A01 T03050119  RH  032%=      5-min Rain = 0
KCR1 112114Z 07003KT 31/12 A3006 RMK A01 T03050116  RH  031%=      5-min Rain = 0
KCR1 112115Z 05002KT 30/12 A3006 RMK A01 T03040119  RH  032%=      5-min Rain = 0
KCR1 112116Z 06002KT 31/12 A3006 RMK A01 T03060121  RH  032%=      5-min Rain = 0
KCR1 112117Z 02001KT 31/12 A3006 RMK A01 T03080115  RH  031%=      5-min Rain = 0
KCR1 112118Z 02002KT 31/12 A3006 RMK A01 T03080116  RH  031%=      5-min Rain = 0
KCR1 112119Z 00005KT 31/12 A3006 RMK A01 T03080115  RH  030%=      5-min Rain = 0
KCR1 112120Z 01006KT 31/11 A3006 RMK A01 T03080110  RH  030%=      5-min Rain = 0
KCR1 112121Z 03005KT 31/11 A3006 RMK A01 T03070113  RH  030%=      5-min Rain = 0
KCR1 112122Z 02004KT 31/11 A3006 RMK A01 T03070113  RH  030%=      5-min Rain = 0
KCR1 112123Z 00003KT 31/11 A3006 RMK A01 T03080113  RH  030%=      5-min Rain = 0
KCR1 112124Z 33003KT 31/11 A3006 RMK A01 T03090110  RH  029%=      5-min Rain = 0
KCR1 112125Z 31002KT 31/11 A3006 RMK A01 T03080114  RH  030%=      5-min Rain = 0
KCR1 112126Z 31003KT 31/12 A3005 RMK A01 T03110115  RH  030%=      5-min Rain = 0
KCR1 112127Z 32003KT 31/12 A3005 RMK A01 T03140115  RH  029%=      5-min Rain = 0
KCR1 112128Z 01001KT 32/12 A3005 RMK A01 T03150115  RH  029%=      5-min Rain = 0
KCR1 112129Z 02005KT 31/12 A3005 RMK A01 T03140117  RH  030%=      5-min Rain = 0
KCR1 112130Z 02005KT 31/12 A3005 RMK A01 T03110120  RH  031%=      5-min Rain = 0
KCR1 112131Z 04007KT 31/12 A3005 RMK A01 T03100120  RH  031%=      5-min Rain = 0
KCR1 112132Z 02008KT 31/12 A3005 RMK A01 T03110120  RH  031%=      5-min Rain = 0
KCR1 112133Z 02007KT 31/12 A3005 RMK A01 T03110120  RH  031%=      5-min Rain = 0
KCR1 112134Z 02006KT 31/12 A3005 RMK A01 T03100118  RH  031%=      5-min Rain = 0
KCR1 112135Z 02005KT 31/12 A3005 RMK A01 T03090117  RH  031%=      5-min Rain = 0
KCR1 112136Z 01005KT 31/12 A3005 RMK A01 T03080116  RH  031%=      5-min Rain = 0
KCR1 112137Z 00004KT 31/12 A3005 RMK A01 T03070115  RH  031%=      5-min Rain = 0
KCR1 112138Z 34004KT 31/11 A3005 RMK A01 T03060114  RH  031%=      5-min Rain = 0
KCR1 112139Z 02005KT 31/12 A3005 RMK A01 T03070117  RH  031%=      5-min Rain = 0
KCR1 112140Z 00007KT 31/12 A3005 RMK A01 T03090118  RH  031%=      5-min Rain = 0
KCR1 112141Z 01006KT 31/12 A3005 RMK A01 T03110118  RH  031%=      5-min Rain = 0
KCR1 112142Z 02006KT 31/12 A3005 RMK A01 T03120117  RH  030%=      5-min Rain = 0
KCR1 112143Z 04004KT 31/12 A3005 RMK A01 T03100116  RH  030%=      5-min Rain = 0
KCR1 112144Z 05006KT 31/12 A3005 RMK A01 T03090121  RH  032%=      5-min Rain = 0
KCR1 112145Z 03008KT 31/12 A3005 RMK A01 T03080120  RH  031%=      5-min Rain = 0
KCR1 112146Z 04006KT 31/12 A3005 RMK A01 T03090120  RH  031%=      5-min Rain = 0
KCR1 112147Z 05009KT 31/12 A3005 RMK A01 T03090121  RH  032%=      5-min Rain = 0
KCR1 112148Z 05010KT 31/12 A3004 RMK A01 T03100118  RH  031%=      5-min Rain = 0
KCR1 112149Z 07009KT 31/12 A3005 RMK A01 T03100119  RH  031%=      5-min Rain = 0
KCR1 112150Z 09009KT 31/12 A3005 RMK A01 T03100118  RH  031%=      5-min Rain = 0
KCR1 112151Z 08007KT 31/12 A3005 RMK A01 T03090118  RH  031%=      5-min Rain = 0
KCR1 112152Z 09006KT 31/12 A3004 RMK A01 T03080119  RH  031%=      5-min Rain = 0
KCR1 112153Z 09007KT 31/12 A3004 RMK A01 T03070119  RH  031%=      5-min Rain = 0
KCR1 112154Z 10006KT 31/12 A3004 RMK A01 T03070119  RH  031%=      5-min Rain = 0
KCR1 112155Z 10005KT 31/12 A3004 RMK A01 T03070118  RH  031%=      5-min Rain = 0
KCR1 112156Z 09006KT 31/12 A3004 RMK A01 T03070119  RH  031%=      5-min Rain = 0
KCR1 112157Z 10005KT 31/12 A3004 RMK A01 T03070116  RH  031%=      5-min Rain = 0
KCR1 112158Z 11005KT 31/12 A3004 RMK A01 T03060119  RH  032%=      5-min Rain = 0
KCR1 112159Z 11005KT 31/12 A3004 RMK A01 T03060116  RH  031%=      5-min Rain = 0
KCR1 112200Z 09003KT 31/12 A3004 RMK A01 T03050116  RH  031%=      5-min Rain = 0
KCR1 112201Z 07004KT 30/12 A3004 RMK A01 T03040116  RH  031%=      5-min Rain = 0
KCR1 112202Z 07004KT 31/12 A3004 RMK A01 T03050116  RH  031%=      5-min Rain = 0
KCR1 112203Z 09003KT 31/12 A3004 RMK A01 T03060119  RH  032%=      5-min Rain = 0
KCR1 112204Z 08003KT 31/12 A3004 RMK A01 T03080122  RH  032%=      5-min Rain = 0
KCR1 112205Z 11002KT 31/12 A3004 RMK A01 T03100116  RH  030%=      5-min Rain = 0
KCR1 112206Z 08003KT 31/12 A3004 RMK A01 T03100118  RH  031%=      5-min Rain = 0
KCR1 112207Z 05005KT 31/12 A3004 RMK A01 T03100118  RH  031%=      5-min Rain = 0
KCR1 112208Z 03004KT 31/12 A3004 RMK A01 T03100118  RH  031%=      5-min Rain = 0
KCR1 112209Z 03005KT 31/12 A3004 RMK A01 T03090118  RH  031%=      5-min Rain = 0
KCR1 112210Z 05006KT 31/12 A3004 RMK A01 T03090119  RH  031%=      5-min Rain = 0
KCR1 112211Z 05006KT 31/12 A3004 RMK A01 T03090117  RH  031%=      5-min Rain = 0
KCR1 112212Z 01004KT 31/12 A3004 RMK A01 T03090117  RH  031%=      5-min Rain = 0
KCR1 112213Z 34004KT 31/12 A3004 RMK A01 T03090116  RH  030%=      5-min Rain = 0
KCR1 112214Z 05003KT 31/12 A3004 RMK A01 T03100117  RH  031%=      5-min Rain = 0
KCR1 112215Z 06007KT 31/12 A3004 RMK A01 T03100122  RH  032%=      5-min Rain = 0
KCR1 112216Z 06007KT 31/12 A3004 RMK A01 T03110119  RH  031%=      5-min Rain = 0
KCR1 112217Z 06004KT 31/12 A3004 RMK A01 T03090117  RH  031%=      5-min Rain = 0
KCR1 112218Z 06003KT 31/12 A3004 RMK A01 T03080120  RH  032%=      5-min Rain = 0
KCR1 112219Z 08002KT 31/12 A3004 RMK A01 T03080120  RH  031%=      5-min Rain = 0
KCR1 112220Z 09002KT 31/12 A3004 RMK A01 T03090117  RH  031%=      5-min Rain = 0
KCR1 112221Z 10003KT 31/12 A3004 RMK A01 T03090117  RH  031%=      5-min Rain = 0
KCR1 112222Z 10003KT 31/12 A3004 RMK A01 T03070118  RH  031%=      5-min Rain = 0
KCR1 112223Z 07006KT 31/12 A3004 RMK A01 T03070120  RH  032%=      5-min Rain = 0
KCR1 112224Z 06008KT 31/12 A3004 RMK A01 T03080122  RH  032%=      5-min Rain = 0
KCR1 112225Z 08008KT 31/12 A3004 RMK A01 T03090122  RH  032%=      5-min Rain = 0
KCR1 112226Z 08009KT 31/12 A3004 RMK A01 T03090121  RH  032%=      5-min Rain = 0
KCR1 112227Z 07008KT 31/12 A3004 RMK A01 T03080120  RH  031%=      5-min Rain = 0
KCR1 112228Z 05006KT 31/12 A3004 RMK A01 T03060118  RH  031%=      5-min Rain = 0
KCR1 112229Z 03004KT 30/12 A3004 RMK A01 T03040118  RH  032%=      5-min Rain = 0
KCR1 112230Z 07003KT 30/12 A3004 RMK A01 T03030120  RH  032%=      5-min Rain = 0
KCR1 112231Z 10004KT 31/12 A3004 RMK A01 T03050121  RH  032%=      5-min Rain = 0
KCR1 112232Z 07005KT 31/12 A3004 RMK A01 T03060123  RH  032%=      5-min Rain = 0
KCR1 112233Z 08005KT 31/12 A3004 RMK A01 T03070118  RH  031%=      5-min Rain = 0
KCR1 112234Z 08006KT 31/12 A3004 RMK A01 T03050120  RH  032%=      5-min Rain = 0
KCR1 112235Z 08008KT 31/12 A3004 RMK A01 T03050120  RH  032%=      5-min Rain = 0
KCR1 112236Z 08008KT 31/12 A3004 RMK A01 T03050118  RH  032%=      5-min Rain = 0
KCR1 112237Z 07005KT 30/12 A3004 RMK A01 T03040119  RH  032%=      5-min Rain = 0
KCR1 112238Z 05008KT 30/12 A3004 RMK A01 T03040119  RH  032%=      5-min Rain = 0
KCR1 112239Z 06008KT 31/12 A3004 RMK A01 T03050118  RH  032%=      5-min Rain = 0
KCR1 112240Z 05005KT 30/12 A3004 RMK A01 T03040119  RH  032%=      5-min Rain = 0
KCR1 112241Z 08004KT 30/12 A3004 RMK A01 T03040124  RH  033%=      5-min Rain = 0
KCR1 112242Z 10002KT 31/12 A3004 RMK A01 T03070121  RH  032%=      5-min Rain = 0
KCR1 112243Z 05002KT 31/12 A3004 RMK A01 T03070121  RH  032%=      5-min Rain = 0
KCR1 112244Z 05007KT 31/12 A3004 RMK A01 T03080121  RH  032%=      5-min Rain = 0
KCR1 112245Z 07007KT 31/12 A3004 RMK A01 T03080120  RH  032%=      5-min Rain = 0
KCR1 112246Z 07007KT 31/12 A3004 RMK A01 T03070121  RH  032%=      5-min Rain = 0
KCR1 112247Z 09007KT 31/12 A3004 RMK A01 T03070122  RH  032%=      5-min Rain = 0
KCR1 112248Z 07009KT 31/12 A3004 RMK A01 T03070122  RH  032%=      5-min Rain = 0
KCR1 112249Z 06009KT 31/12 A3004 RMK A01 T03070119  RH  032%=      5-min Rain = 0
KCR1 112250Z 06008KT 31/12 A3004 RMK A01 T03060119  RH  032%=      5-min Rain = 0
KCR1 112251Z 07008KT 30/12 A3004 RMK A01 T03040119  RH  032%=      5-min Rain = 0
KCR1 112252Z 07006KT 30/12 A3004 RMK A01 T03040121  RH  033%=      5-min Rain = 0
KCR1 112253Z 06009KT 31/12 A3004 RMK A01 T03050121  RH  032%=      5-min Rain = 0
KCR1 112254Z 05008KT 31/12 A3004 RMK A01 T03060119  RH  032%=      5-min Rain = 0
KCR1 112255Z 04007KT 31/12 A3004 RMK A01 T03050121  RH  032%=      5-min Rain = 0
KCR1 112256Z 06008KT 31/12 A3004 RMK A01 T03050121  RH  032%=      5-min Rain = 0
KCR1 112257Z 07009KT 31/12 A3004 RMK A01 T03060119  RH  032%=      5-min Rain = 0
KCR1 112258Z 09009KT 31/12 A3004 RMK A01 T03060121  RH  032%=      5-min Rain = 0
KCR1 112259Z 08005KT 31/12 A3004 RMK A01 T03050118  RH  032%=      5-min Rain = 0
KCR1 112300Z 07005KT 30/12 A3004 RMK A01 T03030117  RH  032%=      5-min Rain = 0
KCR1 112301Z 08009KT 30/12 A3004 RMK A01 T03020120  RH  033%=      5-min Rain = 0
KCR1 112302Z 08010KT 30/12 A3004 RMK A01 T03020119  RH  032%=      5-min Rain = 0
KCR1 112303Z 06006KT 30/12 A3004 RMK A01 T03020120  RH  032%=      5-min Rain = 0
KCR1 112304Z 07004KT 30/12 A3004 RMK A01 T03030118  RH  032%=      5-min Rain = 0
KCR1 112305Z 05006KT 30/12 A3004 RMK A01 T03020122  RH  033%=      5-min Rain = 0
KCR1 112306Z 06008KT 30/12 A3004 RMK A01 T03030119  RH  032%=      5-min Rain = 0
KCR1 112307Z 04008KT 30/12 A3004 RMK A01 T03030120  RH  032%=      5-min Rain = 0
KCR1 112308Z 05009KT 30/12 A3004 RMK A01 T03030120  RH  032%=      5-min Rain = 0
KCR1 112309Z 04009KT 30/12 A3004 RMK A01 T03040119  RH  032%=      5-min Rain = 0
KCR1 112310Z 03010KT 30/12 A3004 RMK A01 T03030120  RH  033%=      5-min Rain = 0
KCR1 112311Z 03009KT 30/12 A3004 RMK A01 T03030120  RH  032%=      5-min Rain = 0
KCR1 112312Z 06008KT 30/12 A3004 RMK A01 T03020120  RH  033%=      5-min Rain = 0
KCR1 112313Z 06009KT 30/12 A3004 RMK A01 T03020119  RH  032%=      5-min Rain = 0
KCR1 112314Z 06008KT 30/12 A3004 RMK A01 T03020120  RH  033%=      5-min Rain = 0
KCR1 112315Z 07009KT 30/12 A3004 RMK A01 T03020118  RH  032%=      5-min Rain = 0
KCR1 112316Z 06008KT 30/12 A3004 RMK A01 T03010118  RH  032%=      5-min Rain = 0
KCR1 112317Z 07007KT 30/12 A3004 RMK A01 T03000118  RH  033%=      5-min Rain = 0
KCR1 112318Z 07007KT 30/12 A3004 RMK A01 T03000119  RH  033%=      5-min Rain = 0
KCR1 112319Z 09008KT 30/12 A3003 RMK A01 T03000118  RH  033%=      5-min Rain = 0
KCR1 112320Z 08008KT 30/12 A3003 RMK A01 T02990119  RH  033%=      5-min Rain = 0
KCR1 112321Z 07008KT 30/12 A3003 RMK A01 T02990119  RH  033%=      5-min Rain = 0
KCR1 112322Z 07009KT 30/12 A3003 RMK A01 T02990119  RH  033%=      5-min Rain = 0
KCR1 112323Z 08008KT 30/12 A3003 RMK A01 T02990118  RH  033%=      5-min Rain = 0
KCR1 112324Z 07007KT 30/12 A3004 RMK A01 T02990118  RH  033%=      5-min Rain = 0
KCR1 112325Z 06007KT 30/12 A3004 RMK A01 T02980120  RH  033%=      5-min Rain = 0
KCR1 112326Z 06009KT 30/12 A3004 RMK A01 T02990120  RH  033%=      5-min Rain = 0
KCR1 112327Z 06009KT 30/12 A3004 RMK A01 T03000119  RH  033%=      5-min Rain = 0
KCR1 112328Z 07007KT 30/12 A3004 RMK A01 T03000119  RH  033%=      5-min Rain = 0
KCR1 112329Z 06007KT 30/12 A3004 RMK A01 T03000116  RH  032%=      5-min Rain = 0
KCR1 112330Z 06006KT 30/12 A3004 RMK A01 T02990118  RH  033%=      5-min Rain = 0
KCR1 112331Z 06010KT 30/12 A3004 RMK A01 T02990118  RH  033%=      5-min Rain = 0
KCR1 112332Z 06010KT 30/12 A3004 RMK A01 T02990118  RH  033%=      5-min Rain = 0
KCR1 112333Z 05009KT 30/12 A3004 RMK A01 T02990117  RH  032%=      5-min Rain = 0
KCR1 112334Z 04008KT 30/12 A3004 RMK A01 T02990117  RH  033%=      5-min Rain = 0
KCR1 112335Z 06008KT 30/12 A3004 RMK A01 T02980117  RH  033%=      5-min Rain = 0
KCR1 112336Z 07007KT 30/12 A3004 RMK A01 T02980115  RH  032%=      5-min Rain = 0
KCR1 112337Z 08008KT 30/12 A3004 RMK A01 T02980116  RH  033%=      5-min Rain = 0
KCR1 112338Z 08010KT 30/12 A3004 RMK A01 T02970116  RH  033%=      5-min Rain = 0
KCR1 112339Z 08009KT 30/12 A3004 RMK A01 T02970115  RH  033%=      5-min Rain = 0
KCR1 112340Z 08009KT 30/12 A3004 RMK A01 T02960115  RH  033%=      5-min Rain = 0
KCR1 112341Z 08009KT 30/12 A3004 RMK A01 T02960116  RH  033%=      5-min Rain = 0
KCR1 112342Z 09007KT 30/12 A3004 RMK A01 T02950115  RH  033%=      5-min Rain = 0
KCR1 112343Z 09007KT 30/12 A3004 RMK A01 T02950115  RH  033%=      5-min Rain = 0
KCR1 112344Z 09006KT 30/12 A3003 RMK A01 T02950117  RH  033%=      5-min Rain = 0
KCR1 112345Z 07007KT 30/12 A3004 RMK A01 T02950119  RH  034%=      5-min Rain = 0
KCR1 112346Z 06010KT 30/12 A3003 RMK A01 T02950116  RH  033%=      5-min Rain = 0
KCR1 112347Z 07010KT 30/12 A3003 RMK A01 T02950115  RH  033%=      5-min Rain = 0
KCR1 112348Z 08008KT 30/11 A3003 RMK A01 T02950114  RH  033%=      5-min Rain = 0
KCR1 112349Z 07007KT 30/12 A3003 RMK A01 T02950116  RH  033%=      5-min Rain = 0
KCR1 112350Z 07009KT 30/12 A3003 RMK A01 T02950115  RH  033%=      5-min Rain = 0
KCR1 112351Z 07008KT 30/11 A3003 RMK A01 T02950114  RH  033%=      5-min Rain = 0
KCR1 112352Z 08007KT 29/11 A3003 RMK A01 T02940112  RH  033%=      5-min Rain = 0
KCR1 112353Z 08007KT 29/11 A3004 RMK A01 T02940113  RH  033%=      5-min Rain = 0
KCR1 112354Z 08006KT 29/11 A3004 RMK A01 T02930114  RH  033%=      5-min Rain = 0
KCR1 112355Z 08007KT 29/11 A3004 RMK A01 T02930114  RH  033%=      5-min Rain = 0
KCR1 112356Z 07008KT 29/11 A3004 RMK A01 T02920113  RH  033%=      5-min Rain = 0
KCR1 112357Z 07006KT 29/11 A3004 RMK A01 T02920111  RH  033%=      5-min Rain = 0
KCR1 112358Z 06008KT 29/11 A3004 RMK A01 T02920113  RH  033%=      5-min Rain = 0
KCR1 112359Z 07008KT 29/11 A3004 RMK A01 T02920110  RH  032%=      5-min Rain = 0
KCR1 120000Z 07008KT 29/11 A3004 RMK A01 T02920111  RH  033%=      5-min Rain = 0
KCR1 120001Z 07008KT 29/11 A3004 RMK A01 T02920112  RH  033%=      5-min Rain = 0
KCR1 120002Z 07007KT 29/11 A3004 RMK A01 T02910113  RH  033%=      5-min Rain = 0
KCR1 120003Z 06007KT 29/12 A3004 RMK A01 T02910115  RH  033%=      5-min Rain = 0
KCR1 120004Z 06008KT 29/12 A3004 RMK A01 T02910115  RH  034%=      5-min Rain = 0
KCR1 120005Z 06008KT 29/11 A3004 RMK A01 T02910114  RH  033%=      5-min Rain = 0
KCR1 120006Z 05008KT 29/12 A3004 RMK A01 T02910115  RH  034%=      5-min Rain = 0
KCR1 120007Z 06009KT 29/11 A3004 RMK A01 T02900113  RH  033%=      5-min Rain = 0
KCR1 120008Z 07008KT 29/11 A3004 RMK A01 T02900113  RH  033%=      5-min Rain = 0
KCR1 120009Z 07008KT 29/11 A3004 RMK A01 T02900114  RH  034%=      5-min Rain = 0
KCR1 120010Z 06008KT 29/11 A3004 RMK A01 T02890114  RH  034%=      5-min Rain = 0
KCR1 120011Z 07008KT 29/11 A3004 RMK A01 T02880114  RH  034%=      5-min Rain = 0
KCR1 120012Z 07008KT 29/11 A3003 RMK A01 T02880113  RH  034%=      5-min Rain = 0
KCR1 120013Z 06008KT 29/11 A3003 RMK A01 T02880113  RH  034%=      5-min Rain = 0
KCR1 120014Z 07008KT 29/11 A3003 RMK A01 T02880113  RH  034%=      5-min Rain = 0
KCR1 120015Z 06007KT 29/11 A3003 RMK A01 T02870113  RH  034%=      5-min Rain = 0
KCR1 120016Z 06007KT 29/11 A3003 RMK A01 T02870113  RH  034%=      5-min Rain = 0
KCR1 120017Z 06007KT 29/11 A3003 RMK A01 T02860114  RH  034%=      5-min Rain = 0
KCR1 120018Z 06008KT 29/11 A3003 RMK A01 T02860113  RH  034%=      5-min Rain = 0
KCR1 120019Z 06008KT 29/11 A3003 RMK A01 T02850113  RH  034%=      5-min Rain = 0
KCR1 120020Z 06008KT 29/11 A3003 RMK A01 T02850112  RH  034%=      5-min Rain = 0
KCR1 120021Z 07007KT 29/11 A3003 RMK A01 T02850112  RH  034%=      5-min Rain = 0
KCR1 120022Z 06006KT 28/11 A3003 RMK A01 T02840112  RH  034%=      5-min Rain = 0
KCR1 120023Z 06008KT 28/11 A3003 RMK A01 T02840112  RH  034%=      5-min Rain = 0
KCR1 120024Z 06008KT 28/11 A3003 RMK A01 T02830112  RH  035%=      5-min Rain = 0
KCR1 120025Z 06006KT 28/11 A3003 RMK A01 T02830112  RH  034%=      5-min Rain = 0
KCR1 120026Z 06007KT 28/11 A3003 RMK A01 T02830113  RH  035%=      5-min Rain = 0
KCR1 120027Z 06007KT 28/11 A3003 RMK A01 T02820112  RH  035%=      5-min Rain = 0
KCR1 120028Z 06006KT 28/11 A3003 RMK A01 T02820112  RH  035%=      5-min Rain = 0
KCR1 120029Z 06006KT 28/11 A3003 RMK A01 T02810112  RH  035%=      5-min Rain = 0
KCR1 120030Z 06006KT 28/11 A3003 RMK A01 T02810112  RH  035%=      5-min Rain = 0
KCR1 120031Z 06006KT 28/11 A3003 RMK A01 T02800112  RH  035%=      5-min Rain = 0
KCR1 120032Z 06007KT 28/11 A3003 RMK A01 T02790112  RH  035%=      5-min Rain = 0
KCR1 120033Z 06007KT 28/11 A3003 RMK A01 T02790111  RH  035%=      5-min Rain = 0
KCR1 120034Z 06006KT 28/11 A3003 RMK A01 T02790111  RH  035%=      5-min Rain = 0
KCR1 120035Z 06006KT 28/11 A3003 RMK A01 T02780111  RH  035%=      5-min Rain = 0
KCR1 120036Z 06006KT 28/11 A3003 RMK A01 T02770111  RH  036%=      5-min Rain = 0
KCR1 120037Z 06006KT 28/11 A3003 RMK A01 T02760111  RH  036%=      5-min Rain = 0
KCR1 120038Z 06006KT 28/11 A3003 RMK A01 T02750111  RH  036%=      5-min Rain = 0
KCR1 120039Z 06006KT 28/11 A3003 RMK A01 T02750111  RH  036%=      5-min Rain = 0
KCR1 120040Z 06006KT 27/11 A3003 RMK A01 T02740111  RH  036%=      5-min Rain = 0
KCR1 120041Z 07006KT 27/11 A3003 RMK A01 T02740111  RH  036%=      5-min Rain = 0
KCR1 120042Z 06006KT 27/11 A3003 RMK A01 T02730111  RH  036%=      5-min Rain = 0
KCR1 120043Z 07006KT 27/11 A3003 RMK A01 T02730111  RH  037%=      5-min Rain = 0
KCR1 120044Z 07005KT 27/11 A3003 RMK A01 T02720111  RH  037%=      5-min Rain = 0
KCR1 120045Z 07005KT 27/11 A3003 RMK A01 T02710111  RH  037%=      5-min Rain = 0
KCR1 120046Z 07005KT 27/11 A3003 RMK A01 T02700111  RH  037%=      5-min Rain = 0
KCR1 120047Z 06006KT 27/11 A3003 RMK A01 T02690111  RH  037%=      5-min Rain = 0
KCR1 120048Z 06006KT 27/11 A3003 RMK A01 T02680112  RH  038%=      5-min Rain = 0
KCR1 120049Z 06005KT 27/11 A3003 RMK A01 T02670112  RH  038%=      5-min Rain = 0
KCR1 120050Z 07005KT 27/11 A3003 RMK A01 T02660112  RH  038%=      5-min Rain = 0
KCR1 120051Z 07005KT 27/11 A3003 RMK A01 T02660113  RH  038%=      5-min Rain = 0
KCR1 120052Z 08006KT 26/11 A3003 RMK A01 T02640113  RH  039%=      5-min Rain = 0
KCR1 120053Z 07006KT 26/11 A3003 RMK A01 T02620114  RH  039%=      5-min Rain = 0
KCR1 120054Z 07006KT 26/11 A3003 RMK A01 T02600113  RH  040%=      5-min Rain = 0
KCR1 120055Z 07006KT 26/11 A3003 RMK A01 T02590114  RH  040%=      5-min Rain = 0
KCR1 120056Z 07006KT 26/11 A3003 RMK A01 T02580114  RH  041%=      5-min Rain = 0
KCR1 120057Z 07007KT 26/12 A3003 RMK A01 T02580115  RH  041%=      5-min Rain = 0
KCR1 120058Z 07007KT 26/12 A3003 RMK A01 T02580115  RH  041%=      5-min Rain = 0
KCR1 120059Z 07006KT 26/12 A3003 RMK A01 T02580115  RH  041%=      5-min Rain = 0
KCR1 120100Z 07007KT 26/12 A3003 RMK A01 T02580115  RH  041%=      5-min Rain = 0
KCR1 120101Z 07006KT 26/12 A3003 RMK A01 T02580115  RH  041%=      5-min Rain = 0
KCR1 120102Z 07007KT 26/12 A3003 RMK A01 T02580115  RH  041%=      5-min Rain = 0
KCR1 120103Z 07007KT 26/12 A3003 RMK A01 T02570115  RH  041%=      5-min Rain = 0
KCR1 120104Z 07006KT 26/12 A3003 RMK A01 T02560115  RH  041%=      5-min Rain = 0
KCR1 120105Z 07006KT 26/12 A3003 RMK A01 T02550115  RH  042%=      5-min Rain = 0
KCR1 120106Z 07006KT 26/12 A3003 RMK A01 T02550115  RH  042%=      5-min Rain = 0
KCR1 120107Z 07006KT 26/12 A3003 RMK A01 T02550115  RH  042%=      5-min Rain = 0
KCR1 120108Z 07005KT 25/12 A3003 RMK A01 T02540115  RH  042%=      5-min Rain = 0
KCR1 120109Z 07005KT 25/12 A3003 RMK A01 T02530115  RH  042%=      5-min Rain = 0
KCR1 120110Z 08006KT 25/12 A3003 RMK A01 T02530115  RH  042%=      5-min Rain = 0
KCR1 120111Z 08005KT 25/12 A3003 RMK A01 T02520115  RH  042%=      5-min Rain = 0
KCR1 120112Z 07005KT 25/12 A3003 RMK A01 T02510115  RH  042%=      5-min Rain = 0
KCR1 120113Z 08005KT 25/12 A3003 RMK A01 T02510115  RH  043%=      5-min Rain = 0
KCR1 120114Z 08005KT 25/12 A3003 RMK A01 T02500115  RH  043%=      5-min Rain = 0
KCR1 120115Z 08005KT 25/12 A3003 RMK A01 T02500116  RH  043%=      5-min Rain = 0
KCR1 120116Z 08005KT 25/12 A3003 RMK A01 T02500116  RH  043%=      5-min Rain = 0
KCR1 120117Z 08005KT 25/12 A3003 RMK A01 T02500116  RH  043%=      5-min Rain = 0
KCR1 120118Z 08005KT 25/12 A3003 RMK A01 T02500116  RH  043%=      5-min Rain = 0
KCR1 120119Z 08005KT 25/12 A3003 RMK A01 T02500117  RH  043%=      5-min Rain = 0
KCR1 120120Z 07004KT 25/12 A3003 RMK A01 T02500117  RH  043%=      5-min Rain = 0
KCR1 120121Z 07005KT 25/12 A3003 RMK A01 T02490117  RH  043%=      5-min Rain = 0
KCR1 120122Z 08005KT 25/12 A3003 RMK A01 T02490117  RH  044%=      5-min Rain = 0
KCR1 120123Z 07005KT 25/12 A3003 RMK A01 T02490117  RH  044%=      5-min Rain = 0
KCR1 120124Z 08006KT 25/12 A3003 RMK A01 T02470117  RH  044%=      5-min Rain = 0
KCR1 120125Z 07006KT 25/12 A3003 RMK A01 T02460117  RH  044%=      5-min Rain = 0
KCR1 120126Z 07007KT 25/12 A3003 RMK A01 T02450117  RH  045%=      5-min Rain = 0
KCR1 120127Z 08006KT 24/12 A3003 RMK A01 T02440117  RH  045%=      5-min Rain = 0
KCR1 120128Z 07006KT 24/12 A3003 RMK A01 T02440117  RH  045%=      5-min Rain = 0
KCR1 120129Z 08006KT 24/12 A3003 RMK A01 T02430117  RH  045%=      5-min Rain = 0
KCR1 120130Z 08007KT 24/12 A3003 RMK A01 T02430118  RH  045%=      5-min Rain = 0
KCR1 120131Z 08006KT 24/12 A3003 RMK A01 T02430118  RH  045%=      5-min Rain = 0
KCR1 120132Z 08006KT 24/12 A3003 RMK A01 T02430118  RH  046%=      5-min Rain = 0
KCR1 120133Z 08006KT 24/12 A3003 RMK A01 T02430118  RH  046%=      5-min Rain = 0
KCR1 120134Z 08006KT 24/12 A3003 RMK A01 T02430118  RH  046%=      5-min Rain = 0
KCR1 120135Z 08006KT 24/12 A3003 RMK A01 T02430118  RH  046%=      5-min Rain = 0
KCR1 120136Z 08006KT 24/12 A3003 RMK A01 T02430118  RH  046%=      5-min Rain = 0
KCR1 120137Z 08006KT 24/12 A3003 RMK A01 T02430118  RH  046%=      5-min Rain = 0
KCR1 120138Z 08006KT 24/12 A3003 RMK A01 T02420118  RH  046%=      5-min Rain = 0
KCR1 120139Z 09006KT 24/12 A3004 RMK A01 T02410118  RH  046%=      5-min Rain = 0
KCR1 120140Z 09006KT 24/12 A3004 RMK A01 T02410118  RH  046%=      5-min Rain = 0
KCR1 120141Z 09006KT 24/12 A3004 RMK A01 T02400118  RH  046%=      5-min Rain = 0
KCR1 120142Z 09006KT 24/12 A3004 RMK A01 T02400118  RH  046%=      5-min Rain = 0
KCR1 120143Z 09006KT 24/12 A3004 RMK A01 T02400118  RH  046%=      5-min Rain = 0
KCR1 120144Z 09006KT 24/12 A3004 RMK A01 T02410118  RH  046%=      5-min Rain = 0
KCR1 120145Z 09006KT 24/12 A3004 RMK A01 T02410118  RH  046%=      5-min Rain = 0
KCR1 120146Z 08005KT 24/12 A3004 RMK A01 T02410118  RH  046%=      5-min Rain = 0
KCR1 120147Z 08005KT 24/12 A3004 RMK A01 T02410118  RH  046%=      5-min Rain = 0
KCR1 120148Z 08006KT 24/12 A3004 RMK A01 T02410118  RH  046%=      5-min Rain = 0
KCR1 120149Z 08006KT 24/12 A3004 RMK A01 T02410118  RH  046%=      5-min Rain = 0
KCR1 120150Z 08005KT 24/12 A3004 RMK A01 T02410118  RH  046%=      5-min Rain = 0
KCR1 120151Z 07005KT 24/12 A3004 RMK A01 T02410118  RH  046%=      5-min Rain = 0
KCR1 120152Z 07005KT 24/12 A3004 RMK A01 T02420119  RH  046%=      5-min Rain = 0
KCR1 120153Z 07005KT 24/12 A3004 RMK A01 T02410118  RH  046%=      5-min Rain = 0
KCR1 120154Z 07005KT 24/12 A3004 RMK A01 T02400118  RH  046%=      5-min Rain = 0
KCR1 120155Z 07005KT 24/12 A3004 RMK A01 T02400118  RH  046%=      5-min Rain = 0
KCR1 120156Z 07005KT 24/12 A3004 RMK A01 T02400118  RH  046%=      5-min Rain = 0
KCR1 120157Z 07005KT 24/12 A3004 RMK A01 T02390118  RH  047%=      5-min Rain = 0
KCR1 120158Z 07005KT 24/12 A3004 RMK A01 T02380117  RH  047%=      5-min Rain = 0
KCR1 120159Z 07005KT 24/12 A3004 RMK A01 T02370118  RH  047%=      5-min Rain = 0
KCR1 120200Z 08005KT 24/12 A3004 RMK A01 T02370118  RH  047%=      5-min Rain = 0
KCR1 120201Z 08006KT 24/12 A3004 RMK A01 T02360118  RH  047%=      5-min Rain = 0
KCR1 120202Z 08005KT 24/12 A3004 RMK A01 T02360118  RH  047%=      5-min Rain = 0
KCR1 120203Z 07005KT 24/12 A3004 RMK A01 T02360118  RH  048%=      5-min Rain = 0
KCR1 120204Z 08006KT 24/12 A3004 RMK A01 T02360118  RH  048%=      5-min Rain = 0
KCR1 120205Z 08006KT 24/12 A3004 RMK A01 T02350117  RH  047%=      5-min Rain = 0
KCR1 120206Z 08006KT 24/12 A3004 RMK A01 T02360118  RH  047%=      5-min Rain = 0
KCR1 120207Z 08005KT 24/12 A3004 RMK A01 T02350118  RH  048%=      5-min Rain = 0
KCR1 120208Z 08005KT 23/12 A3004 RMK A01 T02340118  RH  048%=      5-min Rain = 0
KCR1 120209Z 08005KT 23/12 A3004 RMK A01 T02330117  RH  048%=      5-min Rain = 0
KCR1 120210Z 08005KT 23/12 A3004 RMK A01 T02330117  RH  048%=      5-min Rain = 0
KCR1 120211Z 08005KT 23/12 A3004 RMK A01 T02330117  RH  048%=      5-min Rain = 0
KCR1 120212Z 08005KT 23/12 A3004 RMK A01 T02330117  RH  048%=      5-min Rain = 0
KCR1 120213Z 08005KT 23/12 A3004 RMK A01 T02320117  RH  048%=      5-min Rain = 0
KCR1 120214Z 08005KT 23/12 A3004 RMK A01 T02320117  RH  048%=      5-min Rain = 0
KCR1 120215Z 08005KT 23/12 A3004 RMK A01 T02320116  RH  048%=      5-min Rain = 0
KCR1 120216Z 08005KT 23/12 A3004 RMK A01 T02330117  RH  048%=      5-min Rain = 0
KCR1 120217Z 08005KT 23/12 A3004 RMK A01 T02320116  RH  048%=      5-min Rain = 0
KCR1 120218Z 08005KT 23/12 A3005 RMK A01 T02320116  RH  048%=      5-min Rain = 0
KCR1 120219Z 08005KT 23/12 A3005 RMK A01 T02320116  RH  048%=      5-min Rain = 0
KCR1 120220Z 08005KT 23/12 A3005 RMK A01 T02320116  RH  048%=      5-min Rain = 0
KCR1 120221Z 08005KT 23/12 A3005 RMK A01 T02320116  RH  048%=      5-min Rain = 0
KCR1 120222Z 08005KT 23/12 A3005 RMK A01 T02320115  RH  048%=      5-min Rain = 0
KCR1 120223Z 08005KT 23/12 A3005 RMK A01 T02320115  RH  048%=      5-min Rain = 0
KCR1 120224Z 08004KT 23/11 A3005 RMK A01 T02320114  RH  047%=      5-min Rain = 0
KCR1 120225Z 08005KT 23/11 A3005 RMK A01 T02320114  RH  047%=      5-min Rain = 0
KCR1 120226Z 08005KT 23/11 A3005 RMK A01 T02320113  RH  047%=      5-min Rain = 0
KCR1 120227Z 08005KT 23/11 A3005 RMK A01 T02330113  RH  047%=      5-min Rain = 0
KCR1 120228Z 08005KT 23/11 A3005 RMK A01 T02330113  RH  047%=      5-min Rain = 0
KCR1 120229Z 08005KT 23/11 A3005 RMK A01 T02320113  RH  047%=      5-min Rain = 0
KCR1 120230Z 07004KT 23/11 A3005 RMK A01 T02320112  RH  047%=      5-min Rain = 0
KCR1 120231Z 08005KT 23/11 A3005 RMK A01 T02320112  RH  047%=      5-min Rain = 0
KCR1 120232Z 08004KT 23/11 A3004 RMK A01 T02320112  RH  047%=      5-min Rain = 0
KCR1 120233Z 08005KT 23/11 A3004 RMK A01 T02320113  RH  047%=      5-min Rain = 0
KCR1 120234Z 08005KT 23/11 A3005 RMK A01 T02320112  RH  047%=      5-min Rain = 0
KCR1 120235Z 08005KT 23/11 A3005 RMK A01 T02320113  RH  047%=      5-min Rain = 0
KCR1 120236Z 08004KT 23/11 A3005 RMK A01 T02320113  RH  047%=      5-min Rain = 0
KCR1 120237Z 07004KT 23/11 A3005 RMK A01 T02320112  RH  047%=      5-min Rain = 0
KCR1 120238Z 08004KT 23/11 A3005 RMK A01 T02320113  RH  047%=      5-min Rain = 0
KCR1 120239Z 08004KT 23/11 A3004 RMK A01 T02320112  RH  047%=      5-min Rain = 0
KCR1 120240Z 07005KT 23/11 A3004 RMK A01 T02320112  RH  047%=      5-min Rain = 0
KCR1 120241Z 08005KT 23/11 A3004 RMK A01 T02310112  RH  047%=      5-min Rain = 0
KCR1 120242Z 08005KT 23/11 A3004 RMK A01 T02320112  RH  047%=      5-min Rain = 0
KCR1 120243Z 08004KT 23/11 A3004 RMK A01 T02310112  RH  047%=      5-min Rain = 0
KCR1 120244Z 08005KT 23/11 A3004 RMK A01 T02310112  RH  047%=      5-min Rain = 0
KCR1 120245Z 09005KT 23/11 A3004 RMK A01 T02310112  RH  047%=      5-min Rain = 0
KCR1 120246Z 08005KT 23/11 A3004 RMK A01 T02320112  RH  047%=      5-min Rain = 0
KCR1 120247Z 08005KT 23/11 A3004 RMK A01 T02320111  RH  047%=      5-min Rain = 0
KCR1 120248Z 08005KT 23/11 A3004 RMK A01 T02320111  RH  046%=      5-min Rain = 0
KCR1 120249Z 08005KT 23/11 A3004 RMK A01 T02320111  RH  046%=      5-min Rain = 0
KCR1 120250Z 08004KT 23/11 A3004 RMK A01 T02320112  RH  047%=      5-min Rain = 0
KCR1 120251Z 08004KT 23/11 A3004 RMK A01 T02320112  RH  047%=      5-min Rain = 0
KCR1 120252Z 08005KT 23/11 A3004 RMK A01 T02320112  RH  047%=      5-min Rain = 0
KCR1 120253Z 08005KT 23/11 A3005 RMK A01 T02320112  RH  047%=      5-min Rain = 0
KCR1 120254Z 08005KT 23/11 A3005 RMK A01 T02320112  RH  047%=      5-min Rain = 0
KCR1 120255Z 08005KT 23/11 A3005 RMK A01 T02320112  RH  047%=      5-min Rain = 0
KCR1 120256Z 08005KT 23/11 A3005 RMK A01 T02320112  RH  047%=      5-min Rain = 0
KCR1 120257Z 08005KT 23/11 A3005 RMK A01 T02320112  RH  047%=      5-min Rain = 0
KCR1 120258Z 08005KT 23/11 A3005 RMK A01 T02310112  RH  047%=      5-min Rain = 0
KCR1 120259Z 08005KT 23/11 A3005 RMK A01 T02310112  RH  047%=      5-min Rain = 0
KCR1 120300Z 09005KT 23/11 A3005 RMK A01 T02300112  RH  047%=      5-min Rain = 0
KCR1 120301Z 09006KT 23/11 A3005 RMK A01 T02290112  RH  048%=      5-min Rain = 0
KCR1 120302Z 09006KT 23/11 A3005 RMK A01 T02300112  RH  047%=      5-min Rain = 0
KCR1 120303Z 09006KT 23/11 A3005 RMK A01 T02290111  RH  047%=      5-min Rain = 0
KCR1 120304Z 10006KT 23/11 A3005 RMK A01 T02300113  RH  048%=      5-min Rain = 0
KCR1 120305Z 10006KT 23/11 A3005 RMK A01 T02280112  RH  048%=      5-min Rain = 0
KCR1 120306Z 11005KT 23/11 A3005 RMK A01 T02270113  RH  049%=      5-min Rain = 0
KCR1 120307Z 11005KT 23/11 A3005 RMK A01 T02250114  RH  049%=      5-min Rain = 0
KCR1 120308Z 11005KT 22/11 A3005 RMK A01 T02240114  RH  050%=      5-min Rain = 0
KCR1 120309Z 10005KT 22/12 A3005 RMK A01 T02240115  RH  050%=      5-min Rain = 0
KCR1 120310Z 11005KT 22/12 A3005 RMK A01 T02230115  RH  050%=      5-min Rain = 0
KCR1 120311Z 11005KT 22/12 A3005 RMK A01 T02230116  RH  051%=      5-min Rain = 0
KCR1 120312Z 11003KT 22/12 A3005 RMK A01 T02220117  RH  051%=      5-min Rain = 0
KCR1 120313Z 13001KT 22/12 A3005 RMK A01 T02180116  RH  052%=      5-min Rain = 0
KCR1 120314Z 12001KT 21/12 A3005 RMK A01 T02140115  RH  053%=      5-min Rain = 0
KCR1 120315Z 11002KT 21/12 A3005 RMK A01 T02120115  RH  054%=      5-min Rain = 0
KCR1 120316Z 11002KT 21/12 A3005 RMK A01 T02120115  RH  054%=      5-min Rain = 0
KCR1 120317Z 10002KT 21/12 A3005 RMK A01 T02120116  RH  054%=      5-min Rain = 0
KCR1 120318Z 09002KT 21/12 A3005 RMK A01 T02110115  RH  054%=      5-min Rain = 0
KCR1 120319Z 10002KT 21/12 A3005 RMK A01 T02110116  RH  054%=      5-min Rain = 0
KCR1 120320Z 10001KT 21/12 A3005 RMK A01 T02110116  RH  054%=      5-min Rain = 0
KCR1 120321Z 09001KT 21/12 A3005 RMK A01 T02100116  RH  055%=      5-min Rain = 0
KCR1 120322Z 10001KT 21/11 A3005 RMK A01 T02090114  RH  055%=      5-min Rain = 0
KCR1 120323Z 09001KT 21/12 A3005 RMK A01 T02080115  RH  055%=      5-min Rain = 0
KCR1 120324Z 10001KT 21/12 A3005 RMK A01 T02080115  RH  055%=      5-min Rain = 0
KCR1 120325Z 10001KT 21/12 A3005 RMK A01 T02080115  RH  055%=      5-min Rain = 0
KCR1 120326Z 11000KT 21/12 A3005 RMK A01 T02080115  RH  055%=      5-min Rain = 0
KCR1 120327Z 00000KT 21/12 A3005 RMK A01 T02080115  RH  055%=      5-min Rain = 0
KCR1 120328Z 00000KT 21/12 A3005 RMK A01 T02080116  RH  055%=      5-min Rain = 0
KCR1 120329Z 12000KT 21/12 A3005 RMK A01 T02070115  RH  056%=      5-min Rain = 0
KCR1 120330Z 11000KT 21/12 A3005 RMK A01 T02080115  RH  055%=      5-min Rain = 0
KCR1 120331Z 00000KT 21/12 A3005 RMK A01 T02080115  RH  055%=      5-min Rain = 0
KCR1 120332Z 12000KT 21/12 A3005 RMK A01 T02080115  RH  055%=      5-min Rain = 0
KCR1 120333Z 13000KT 21/12 A3005 RMK A01 T02080115  RH  055%=      5-min Rain = 0
KCR1 120334Z 14000KT 21/12 A3005 RMK A01 T02090115  RH  055%=      5-min Rain = 0
KCR1 120335Z 13001KT 21/11 A3005 RMK A01 T02090114  RH  055%=      5-min Rain = 0
KCR1 120336Z 14001KT 21/12 A3005 RMK A01 T02100115  RH  054%=      5-min Rain = 0
KCR1 120337Z 12002KT 21/11 A3005 RMK A01 T02100114  RH  054%=      5-min Rain = 0
KCR1 120338Z 10003KT 21/11 A3005 RMK A01 T02110114  RH  054%=      5-min Rain = 0
KCR1 120339Z 10003KT 21/11 A3005 RMK A01 T02100114  RH  054%=      5-min Rain = 0
KCR1 120340Z 11002KT 21/11 A3005 RMK A01 T02100114  RH  054%=      5-min Rain = 0
KCR1 120341Z 11002KT 21/11 A3005 RMK A01 T02090114  RH  054%=      5-min Rain = 0
KCR1 120342Z 12002KT 21/11 A3005 RMK A01 T02080113  RH  054%=      5-min Rain = 0
KCR1 120343Z 11002KT 21/11 A3005 RMK A01 T02080113  RH  054%=      5-min Rain = 0
KCR1 120344Z 12003KT 21/11 A3005 RMK A01 T02070113  RH  055%=      5-min Rain = 0
KCR1 120345Z 12003KT 21/11 A3005 RMK A01 T02070113  RH  055%=      5-min Rain = 0
KCR1 120346Z 11002KT 21/11 A3005 RMK A01 T02070113  RH  055%=      5-min Rain = 0
KCR1 120347Z 11002KT 21/11 A3005 RMK A01 T02070113  RH  055%=      5-min Rain = 0
KCR1 120348Z 11002KT 21/11 A3005 RMK A01 T02070113  RH  055%=      5-min Rain = 0
KCR1 120349Z 11002KT 21/11 A3005 RMK A01 T02070112  RH  055%=      5-min Rain = 0
KCR1 120350Z 11002KT 21/11 A3005 RMK A01 T02070112  RH  054%=      5-min Rain = 0
KCR1 120351Z 10002KT 21/11 A3005 RMK A01 T02070112  RH  054%=      5-min Rain = 0
KCR1 120352Z 10002KT 21/11 A3006 RMK A01 T02080113  RH  054%=      5-min Rain = 0
KCR1 120353Z 11002KT 21/11 A3006 RMK A01 T02080112  RH  054%=      5-min Rain = 0
KCR1 120354Z 10002KT 21/11 A3006 RMK A01 T02090112  RH  054%=      5-min Rain = 0
KCR1 120355Z 10002KT 21/11 A3006 RMK A01 T02090112  RH  054%=      5-min Rain = 0
KCR1 120356Z 11002KT 21/11 A3006 RMK A01 T02100112  RH  054%=      5-min Rain = 0
KCR1 120357Z 10002KT 21/11 A3006 RMK A01 T02110112  RH  053%=      5-min Rain = 0
KCR1 120358Z 10002KT 21/11 A3006 RMK A01 T02110112  RH  053%=      5-min Rain = 0
KCR1 120359Z 10002KT 21/11 A3006 RMK A01 T02110112  RH  053%=      5-min Rain = 0
KCR1 120400Z 10002KT 21/11 A3006 RMK A01 T02120112  RH  053%=      5-min Rain = 0
KCR1 120401Z 10002KT 21/11 A3006 RMK A01 T02120112  RH  053%=      5-min Rain = 0
KCR1 120402Z 09002KT 21/11 A3006 RMK A01 T02130112  RH  052%=      5-min Rain = 0
KCR1 120403Z 10002KT 21/11 A3006 RMK A01 T02130112  RH  052%=      5-min Rain = 0
KCR1 120404Z 11002KT 21/11 A3006 RMK A01 T02140112  RH  052%=      5-min Rain = 0
KCR1 120405Z 10003KT 21/11 A3006 RMK A01 T02140112  RH  052%=      5-min Rain = 0
KCR1 120406Z 10004KT 21/11 A3006 RMK A01 T02140112  RH  052%=      5-min Rain = 0
KCR1 120407Z 10003KT 21/11 A3006 RMK A01 T02140112  RH  052%=      5-min Rain = 0
KCR1 120408Z 10003KT 21/11 A3006 RMK A01 T02140112  RH  052%=      5-min Rain = 0
KCR1 120409Z 11004KT 21/11 A3006 RMK A01 T02140113  RH  052%=      5-min Rain = 0
KCR1 120410Z 11004KT 21/11 A3006 RMK A01 T02130113  RH  053%=      5-min Rain = 0
KCR1 120411Z 11004KT 21/11 A3006 RMK A01 T02130114  RH  053%=      5-min Rain = 0
KCR1 120412Z 11004KT 21/11 A3006 RMK A01 T02120114  RH  053%=      5-min Rain = 0
KCR1 120413Z 11004KT 21/11 A3006 RMK A01 T02110114  RH  054%=      5-min Rain = 0
KCR1 120414Z 11004KT 21/11 A3006 RMK A01 T02110114  RH  054%=      5-min Rain = 0
KCR1 120415Z 11005KT 21/11 A3006 RMK A01 T02110114  RH  054%=      5-min Rain = 0
KCR1 120416Z 11005KT 21/12 A3006 RMK A01 T02100115  RH  054%=      5-min Rain = 0
KCR1 120417Z 10005KT 21/11 A3006 RMK A01 T02100114  RH  054%=      5-min Rain = 0
KCR1 120418Z 11005KT 21/12 A3006 RMK A01 T02090115  RH  055%=      5-min Rain = 0
KCR1 120419Z 10005KT 21/12 A3006 RMK A01 T02090115  RH  055%=      5-min Rain = 0
KCR1 120420Z 11005KT 21/12 A3006 RMK A01 T02090115  RH  055%=      5-min Rain = 0
KCR1 120421Z 11005KT 21/12 A3006 RMK A01 T02090115  RH  055%=      5-min Rain = 0
KCR1 120422Z 11005KT 21/11 A3006 RMK A01 T02080114  RH  055%=      5-min Rain = 0
KCR1 120423Z 11005KT 21/11 A3006 RMK A01 T02080114  RH  055%=      5-min Rain = 0
KCR1 120424Z 11005KT 21/12 A3006 RMK A01 T02090115  RH  055%=      5-min Rain = 0
KCR1 120425Z 11004KT 21/11 A3006 RMK A01 T02080114  RH  055%=      5-min Rain = 0
KCR1 120426Z 11003KT 21/12 A3006 RMK A01 T02070115  RH  055%=      5-min Rain = 0
KCR1 120427Z 13002KT 20/11 A3006 RMK A01 T02040114  RH  056%=      5-min Rain = 0
KCR1 120428Z 13002KT 20/11 A3006 RMK A01 T02020112  RH  056%=      5-min Rain = 0
KCR1 120429Z 14002KT 20/11 A3006 RMK A01 T02020112  RH  056%=      5-min Rain = 0
KCR1 120430Z 13003KT 20/11 A3006 RMK A01 T02030112  RH  056%=      5-min Rain = 0
KCR1 120431Z 12002KT 20/11 A3006 RMK A01 T02030111  RH  055%=      5-min Rain = 0
KCR1 120432Z 13002KT 20/11 A3006 RMK A01 T02040112  RH  056%=      5-min Rain = 0
KCR1 120433Z 12002KT 20/11 A3006 RMK A01 T02040112  RH  056%=      5-min Rain = 0
KCR1 120434Z 12002KT 20/11 A3006 RMK A01 T02040112  RH  056%=      5-min Rain = 0
KCR1 120435Z 12002KT 20/11 A3006 RMK A01 T02030112  RH  056%=      5-min Rain = 0
KCR1 120436Z 12001KT 20/11 A3006 RMK A01 T02030112  RH  056%=      5-min Rain = 0
KCR1 120437Z 12001KT 20/11 A3006 RMK A01 T02020112  RH  056%=      5-min Rain = 0
KCR1 120438Z 12001KT 20/11 A3006 RMK A01 T02020111  RH  056%=      5-min Rain = 0
KCR1 120439Z 12001KT 20/11 A3006 RMK A01 T02020111  RH  056%=      5-min Rain = 0
KCR1 120440Z 12001KT 20/11 A3006 RMK A01 T02020111  RH  056%=      5-min Rain = 0
KCR1 120441Z 12002KT 20/11 A3006 RMK A01 T02020110  RH  056%=      5-min Rain = 0
KCR1 120442Z 11002KT 20/11 A3006 RMK A01 T02020110  RH  055%=      5-min Rain = 0
KCR1 120443Z 11002KT 20/11 A3006 RMK A01 T02030110  RH  055%=      5-min Rain = 0
KCR1 120444Z 11002KT 20/11 A3006 RMK A01 T02030111  RH  055%=      5-min Rain = 0
KCR1 120445Z 11002KT 20/11 A3006 RMK A01 T02030112  RH  056%=      5-min Rain = 0
KCR1 120446Z 11002KT 20/11 A3006 RMK A01 T02030112  RH  056%=      5-min Rain = 0
KCR1 120447Z 11002KT 20/11 A3005 RMK A01 T02030112  RH  056%=      5-min Rain = 0
KCR1 120448Z 11002KT 20/11 A3005 RMK A01 T02030112  RH  056%=      5-min Rain = 0
KCR1 120449Z 11002KT 20/11 A3005 RMK A01 T02030112  RH  056%=      5-min Rain = 0
KCR1 120450Z 11002KT 20/11 A3005 RMK A01 T02030112  RH  056%=      5-min Rain = 0
KCR1 120451Z 11002KT 20/11 A3005 RMK A01 T02030111  RH  056%=      5-min Rain = 0
KCR1 120452Z 11002KT 20/11 A3005 RMK A01 T02030112  RH  056%=      5-min Rain = 0
KCR1 120453Z 11002KT 20/11 A3005 RMK A01 T02040112  RH  055%=      5-min Rain = 0
KCR1 120454Z 11002KT 20/11 A3005 RMK A01 T02040111  RH  055%=      5-min Rain = 0
KCR1 120455Z 11002KT 20/11 A3005 RMK A01 T02040111  RH  055%=      5-min Rain = 0
KCR1 120456Z 11002KT 20/11 A3005 RMK A01 T02040111  RH  055%=      5-min Rain = 0
KCR1 120457Z 11002KT 20/11 A3005 RMK A01 T02040111  RH  055%=      5-min Rain = 0
KCR1 120458Z 11002KT 20/11 A3005 RMK A01 T02040111  RH  055%=      5-min Rain = 0
KCR1 120459Z 12002KT 20/11 A3005 RMK A01 T02040112  RH  055%=      5-min Rain = 0

Page generated in 0.132 seconds.